GFSFLT2_850_dewp_000.txt.gz
Dewpoint
-9 -10 -9 -10 -10 -8 -8 -9 -8 -10 -10 -9 -8 -8 -7 -7 -8 -8 -8 -7 -7 -6 -6 -5 -5 -5 -4
-9 -9 -10 -9 -7 -8 -11 -12 -11 -11 -10 -9 -10 -10 -10 -9 -9 -8 -6 -5 -6 -6 -6 -5 -4 -3 -3
-9 -9 -10 -7 -8 -12 -12 -12 -14 -13 -10 -10 -9 -9 -8 -7 -6 -7 -8 -8 -8 -7 -7 -7 -6 -6 -5
-7 -9 -7 -9 -10 -11 -12 -12 -12 -10 -9 -9 -9 -9 -8 -9 -9 -9 -8 -8 -8 -7 -7 -6 -5 -5 -4
-9 -8 -8 -11 -11 -11 -10 -11 -10 -9 -11 -12 -10 -10 -11 -11 -10 -9 -8 -7 -7 -6 -6 -6 -5 -4 -4
-8 -10 -10 -10 -11 -10 -9 -9 -11 -12 -11 -10 -10 -11 -11 -11 -10 -9 -9 -8 -7 -8 -7 -6 -5 -5 -5
-11 -11 -10 -10 -9 -10 -10 -10 -10 -11 -11 -10 -11 -10 -12 -12 -10 -9 -9 -8 -8 -7 -7 -6 -6 -5 -5
-10 -10 -10 -10 -11 -10 -11 -10 -11 -12 -11 -11 -11 -12 -12 -12 -12 -12 -9 -8 -8 -7 -7 -6 -6 -5 -5
-10 -11 -12 -11 -11 -11 -11 -11 -11 -12 -13 -11 -12 -11 -11 -11 -13 -12 -9 -8 -8 -8 -7 -7 -7 -6 -6
-13 -15 -14 -13 -11 -11 -12 -12 -11 -11 -13 -11 -11 -10 -10 -11 -11 -11 -11 -11 -8 -8 -8 -7 -7 -7 -7
-14 -13 -12 -12 -12 -11 -11 -11 -12 -11 -12 -10 -10 -10 -10 -10 -10 -11 -12 -12 -10 -7 -6 -6 -6 -7 -7
-12 -12 -12 -12 -11 -11 -11 -11 -11 -11 -10 -10 -10 -10 -10 -10 -10 -12 -12 -10 -8 -6 -6 -5 -5 -6 -6
-12 -12 -11 -11 -11 -11 -12 -11 -11 -11 -10 -10 -10 -10 -10 -11 -10 -11 -10 -8 -6 -6 -5 -4 -4 -3 -3
-12 -12 -11 -11 -11 -11 -11 -11 -11 -11 -11 -10 -10 -10 -10 -9 -10 -10 -8 -9 -6 -5 -4 -4 -3 -2 -2
-12 -11 -11 -11 -11 -11 -11 -11 -10 -10 -10 -10 -10 -9 -9 -9 -8 -8 -7 -6 -5 -4 -4 -4 -3 -2 -1
-11 -11 -11 -10 -10 -10 -10 -10 -10 -10 -10 -10 -9 -9 -8 -8 -8 -7 -6 -5 -5 -4 -5 -5 -4 -2 -1
-11 -10 -10 -10 -10 -10 -10 -10 -10 -10 -9 -9 -9 -9 -9 -9 -7 -6 -5 -4 -4 -4 -4 -4 -5 -5 -3

GFSFLT2_850_dewp_003.txt.gz
Dewpoint
-9 -10 -11 -11 -9 -9 -8 -7 -9 -9 -10 -10 -10 -10 -8 -7 -6 -6 -6 -5 -6 -7 -6 -5 -5 -4 -3
-10 -11 -11 -9 -12 -12 -7 -12 -12 -12 -11 -11 -10 -9 -8 -7 -7 -6 -7 -6 -6 -5 -5 -5 -4 -4 -4
-9 -10 -8 -10 -9 -8 -13 -13 -13 -12 -12 -10 -9 -9 -9 -9 -8 -7 -6 -7 -7 -6 -6 -6 -6 -6 -6
-8 -8 -9 -9 -10 -11 -13 -11 -11 -12 -10 -10 -10 -11 -10 -9 -9 -9 -9 -9 -8 -8 -7 -7 -7 -6 -7
-8 -8 -10 -11 -12 -12 -10 -10 -10 -11 -11 -11 -11 -11 -11 -11 -11 -10 -9 -9 -8 -7 -7 -6 -6 -5 -5
-9 -10 -14 -11 -10 -9 -10 -10 -11 -11 -11 -11 -11 -12 -13 -13 -11 -9 -9 -9 -8 -8 -8 -7 -6 -6 -6
-11 -11 -10 -10 -10 -10 -10 -10 -10 -11 -11 -11 -13 -13 -14 -13 -11 -9 -9 -9 -8 -8 -7 -7 -6 -6 -6
-10 -10 -10 -10 -10 -10 -11 -11 -11 -12 -11 -11 -12 -12 -12 -12 -13 -12 -9 -8 -8 -8 -7 -7 -6 -6 -6
-10 -10 -11 -11 -11 -11 -11 -11 -11 -11 -12 -11 -12 -11 -11 -11 -12 -11 -9 -9 -9 -8 -8 -8 -7 -6 -6
-13 -14 -14 -13 -11 -11 -11 -12 -11 -12 -12 -12 -11 -11 -10 -11 -11 -11 -11 -11 -9 -9 -9 -8 -7 -7 -8
-13 -13 -12 -12 -12 -11 -11 -11 -12 -12 -12 -11 -11 -11 -11 -10 -11 -11 -11 -10 -10 -8 -7 -7 -6 -7 -7
-12 -12 -12 -12 -12 -11 -11 -11 -11 -11 -10 -10 -11 -10 -10 -10 -10 -11 -10 -9 -8 -6 -6 -6 -6 -6 -7
-12 -12 -11 -11 -11 -11 -11 -11 -11 -11 -10 -10 -10 -10 -10 -10 -10 -9 -8 -8 -6 -6 -5 -5 -5 -5 -5
-12 -12 -11 -11 -11 -10 -10 -11 -11 -11 -11 -10 -9 -9 -9 -9 -8 -8 -7 -9 -6 -5 -5 -5 -5 -4 -4
-12 -11 -11 -11 -10 -10 -10 -10 -11 -10 -10 -10 -9 -8 -7 -7 -7 -7 -6 -5 -5 -4 -5 -5 -5 -4 -2
-11 -10 -10 -10 -10 -10 -10 -10 -10 -10 -10 -9 -9 -9 -8 -7 -7 -7 -6 -5 -4 -4 -5 -5 -5 -4 -2
-10 -10 -10 -10 -10 -10 -10 -10 -10 -10 -9 -9 -8 -8 -8 -8 -6 -6 -5 -5 -4 -4 -4 -5 -5 -5 -1

GFSFLT2_850_dewp_006.txt.gz
Dewpoint
-11 -11 -12 -13 -11 -10 -9 -8 -8 -8 -9 -10 -10 -10 -9 -9 -8 -7 -6 -6 -5 -5 -5 -5 -4 -3 -4
-10 -12 -13 -11 -10 -11 -10 -10 -12 -12 -11 -10 -10 -10 -9 -8 -7 -7 -7 -7 -6 -6 -6 -5 -4 -4 -4
-10 -11 -10 -9 -9 -10 -12 -12 -12 -11 -11 -11 -10 -9 -9 -9 -9 -8 -7 -7 -7 -7 -6 -6 -6 -5 -5
-9 -9 -8 -9 -11 -12 -12 -11 -10 -10 -11 -10 -10 -10 -10 -10 -9 -9 -9 -9 -9 -9 -8 -7 -7 -6 -7
-9 -9 -10 -11 -12 -12 -10 -10 -10 -10 -11 -11 -11 -11 -11 -11 -12 -10 -10 -9 -9 -8 -8 -7 -7 -7 -7
-9 -10 -11 -12 -11 -10 -10 -10 -11 -11 -11 -11 -11 -11 -12 -13 -12 -10 -9 -9 -9 -8 -8 -8 -7 -7 -6
-12 -11 -10 -10 -10 -11 -10 -11 -11 -11 -11 -12 -13 -13 -13 -14 -13 -10 -9 -9 -9 -8 -8 -8 -8 -7 -7
-11 -10 -10 -10 -10 -10 -11 -11 -11 -12 -11 -11 -12 -12 -12 -12 -13 -11 -10 -9 -9 -8 -8 -7 -7 -7 -6
-10 -11 -12 -12 -11 -11 -11 -11 -11 -12 -12 -11 -12 -11 -12 -12 -12 -11 -10 -9 -9 -8 -8 -8 -8 -7 -7
-13 -13 -13 -13 -12 -11 -11 -12 -12 -12 -12 -11 -12 -11 -11 -11 -12 -12 -12 -11 -9 -8 -8 -8 -8 -8 -8
-13 -13 -13 -12 -11 -11 -11 -11 -11 -11 -12 -11 -11 -11 -11 -11 -11 -11 -9 -8 -8 -7 -7 -6 -6 -7 -8
-13 -12 -12 -11 -11 -11 -11 -11 -10 -11 -10 -10 -11 -10 -10 -10 -10 -10 -8 -7 -7 -6 -6 -6 -6 -6 -6
-12 -12 -11 -11 -11 -10 -11 -11 -11 -10 -10 -10 -10 -9 -9 -10 -9 -8 -7 -8 -6 -5 -5 -5 -5 -5 -5
-11 -11 -10 -10 -10 -10 -10 -10 -10 -11 -10 -9 -9 -8 -8 -7 -7 -7 -7 -8 -5 -5 -5 -5 -5 -5 -5
-11 -10 -10 -10 -10 -10 -10 -10 -10 -10 -10 -9 -9 -7 -6 -6 -6 -6 -6 -6 -5 -5 -5 -5 -5 -5 -5
-10 -10 -10 -10 -10 -9 -9 -10 -10 -10 -9 -8 -8 -8 -9 -8 -6 -6 -6 -6 -5 -5 -5 -5 -5 -4 -3
-10 -9 -10 -9 -9 -9 -9 -9 -10 -10 -9 -8 -8 -8 -8 -8 -8 -5 -6 -6 -6 -6 -5 -5 -5 -4 -1

GFSFLT2_850_dewp_009.txt.gz
Dewpoint
-9 -10 -9 -9 -10 -9 -8 -8 -8 -9 -9 -9 -8 -9 -9 -8 -8 -8 -8 -7 -6 -5 -5 -4 -4 -3 -3
-10 -9 -10 -9 -8 -8 -8 -9 -10 -10 -10 -10 -9 -9 -9 -8 -8 -8 -7 -7 -7 -7 -6 -6 -5 -5 -4
-10 -10 -8 -8 -8 -10 -11 -12 -12 -11 -10 -10 -9 -9 -8 -8 -8 -8 -8 -8 -8 -8 -7 -7 -6 -6 -5
-8 -8 -9 -11 -11 -12 -11 -11 -10 -10 -10 -10 -9 -9 -9 -9 -9 -9 -9 -9 -9 -9 -8 -8 -7 -8 -7
-9 -9 -10 -11 -11 -11 -10 -10 -10 -10 -11 -10 -11 -10 -11 -10 -10 -10 -9 -9 -9 -8 -8 -8 -7 -7 -7
-9 -11 -12 -11 -10 -10 -10 -10 -10 -10 -10 -11 -11 -11 -11 -11 -10 -10 -9 -9 -9 -8 -8 -8 -8 -8 -7
-11 -11 -10 -10 -10 -11 -11 -10 -10 -11 -10 -11 -12 -11 -11 -12 -11 -10 -9 -9 -9 -9 -8 -8 -8 -7 -7
-10 -10 -10 -10 -10 -10 -11 -11 -11 -12 -10 -11 -12 -11 -11 -12 -12 -11 -10 -9 -9 -8 -8 -8 -7 -7 -7
-10 -10 -12 -12 -11 -11 -10 -11 -11 -11 -12 -11 -11 -11 -11 -12 -12 -10 -9 -9 -9 -8 -8 -8 -7 -7 -7
-12 -13 -13 -13 -12 -11 -11 -11 -12 -12 -11 -11 -11 -10 -11 -11 -11 -10 -8 -8 -8 -8 -8 -8 -8 -7 -7
-13 -13 -12 -12 -11 -10 -10 -11 -11 -12 -11 -11 -11 -11 -11 -11 -10 -9 -7 -7 -7 -7 -6 -6 -6 -6 -7
-12 -11 -11 -11 -10 -10 -10 -10 -10 -10 -10 -10 -11 -10 -10 -10 -9 -8 -7 -7 -6 -6 -6 -6 -5 -5 -5
-11 -11 -11 -10 -10 -10 -10 -10 -10 -10 -9 -9 -9 -9 -9 -9 -9 -7 -6 -7 -6 -6 -6 -6 -5 -5 -5
-11 -10 -10 -10 -10 -10 -10 -10 -10 -10 -10 -9 -8 -8 -8 -7 -7 -6 -6 -7 -6 -6 -6 -6 -6 -5 -5
-10 -10 -9 -10 -10 -10 -9 -10 -10 -10 -10 -10 -9 -8 -9 -9 -8 -7 -6 -6 -6 -6 -6 -6 -6 -5 -5
-10 -9 -9 -10 -10 -9 -9 -9 -9 -10 -10 -9 -9 -8 -9 -10 -9 -7 -6 -6 -6 -6 -6 -6 -5 -4 -2
-9 -9 -9 -10 -9 -9 -9 -9 -9 -9 -9 -9 -8 -8 -8 -8 -9 -7 -6 -6 -6 -6 -6 -6 -5 -3 -3

GFSFLT2_850_dewp_012.txt.gz
Dewpoint
-11 -10 -10 -10 -10 -9 -9 -9 -9 -9 -9 -9 -9 -8 -8 -7 -7 -7 -7 -7 -7 -6 -6 -6 -5 -4 -4
-10 -10 -10 -9 -8 -9 -10 -11 -12 -12 -11 -9 -8 -8 -8 -7 -7 -7 -7 -7 -6 -7 -6 -6 -5 -5 -5
-10 -10 -8 -8 -9 -10 -11 -12 -11 -11 -10 -10 -9 -8 -8 -8 -7 -7 -8 -7 -7 -7 -7 -7 -7 -6 -6
-9 -7 -8 -9 -11 -12 -12 -11 -10 -10 -10 -9 -9 -9 -9 -9 -8 -8 -8 -8 -8 -8 -8 -7 -7 -7 -7
-7 -8 -9 -11 -12 -12 -10 -10 -10 -10 -10 -10 -10 -10 -10 -9 -9 -9 -9 -9 -8 -8 -8 -8 -7 -7 -7
-8 -9 -12 -12 -11 -10 -9 -9 -10 -10 -10 -10 -10 -10 -10 -10 -10 -9 -9 -8 -8 -8 -8 -8 -7 -7 -7
-10 -12 -11 -10 -11 -10 -10 -10 -10 -11 -9 -10 -10 -10 -10 -10 -10 -9 -8 -8 -8 -8 -8 -8 -8 -7 -7
-11 -10 -10 -10 -10 -10 -10 -11 -10 -10 -10 -10 -11 -10 -10 -11 -11 -10 -8 -8 -8 -8 -8 -7 -7 -7 -7
-9 -9 -9 -10 -10 -10 -11 -10 -10 -10 -10 -10 -10 -10 -11 -11 -11 -10 -9 -8 -7 -7 -7 -8 -7 -7 -7
-10 -11 -11 -10 -10 -10 -10 -11 -11 -11 -11 -10 -10 -10 -10 -10 -10 -10 -9 -8 -6 -6 -6 -6 -7 -7 -7
-11 -11 -11 -10 -10 -10 -10 -10 -11 -11 -10 -10 -11 -10 -10 -10 -10 -9 -8 -7 -6 -6 -6 -6 -6 -6 -7
-11 -10 -10 -10 -10 -10 -10 -10 -10 -10 -9 -9 -11 -10 -10 -10 -9 -9 -8 -8 -7 -6 -6 -6 -7 -6 -6
-11 -11 -10 -10 -10 -10 -10 -10 -10 -10 -10 -10 -9 -9 -10 -10 -9 -8 -7 -7 -7 -6 -6 -6 -6 -6 -6
-12 -11 -10 -10 -10 -10 -10 -10 -10 -10 -10 -10 -9 -9 -9 -8 -8 -8 -8 -7 -6 -6 -6 -6 -6 -6 -5
-10 -10 -10 -10 -10 -10 -9 -9 -10 -9 -10 -10 -9 -8 -8 -8 -8 -9 -7 -6 -6 -6 -6 -6 -6 -5 -5
-9 -9 -10 -10 -10 -9 -9 -9 -9 -9 -9 -9 -9 -8 -8 -9 -7 -7 -7 -7 -6 -6 -6 -6 -6 -5 -4
-9 -9 -10 -10 -10 -9 -9 -9 -9 -9 -9 -9 -8 -8 -8 -8 -10 -10 -8 -7 -6 -6 -6 -6 -6 -5 -4

GFSFLT2_850_dewp_015.txt.gz
Dewpoint
-10 -10 -10 -10 -10 -9 -8 -10 -10 -10 -10 -9 -9 -8 -7 -7 -6 -6 -6 -6 -5 -5 -5 -5 -5 -4 -4
-9 -9 -9 -10 -9 -8 -9 -10 -11 -12 -10 -9 -8 -8 -8 -7 -7 -6 -6 -6 -6 -6 -6 -5 -5 -5 -5
-9 -9 -10 -8 -7 -8 -10 -11 -12 -11 -10 -9 -9 -8 -7 -7 -7 -7 -7 -7 -7 -6 -6 -6 -6 -6 -5
-9 -10 -8 -7 -9 -10 -11 -11 -10 -10 -10 -10 -9 -9 -8 -8 -8 -7 -7 -7 -7 -7 -7 -7 -7 -6 -6
-8 -7 -8 -9 -10 -11 -11 -10 -12 -9 -10 -11 -9 -11 -11 -9 -9 -8 -8 -7 -7 -7 -7 -7 -7 -7 -7
-7 -8 -9 -10 -11 -10 -11 -9 -9 -11 -9 -11 -10 -10 -10 -10 -9 -8 -8 -7 -7 -7 -7 -7 -7 -7 -7
-9 -10 -10 -11 -12 -10 -9 -9 -10 -12 -10 -11 -11 -11 -11 -11 -9 -8 -8 -7 -7 -6 -6 -6 -6 -6 -7
-10 -10 -11 -10 -8 -9 -9 -11 -11 -11 -9 -10 -11 -11 -10 -11 -12 -11 -10 -7 -7 -6 -6 -6 -6 -7 -6
-10 -9 -9 -9 -9 -10 -11 -10 -10 -10 -10 -10 -10 -10 -11 -11 -12 -11 -9 -10 -9 -8 -7 -6 -6 -6 -6
-11 -11 -11 -11 -10 -10 -10 -10 -10 -10 -10 -10 -10 -10 -10 -11 -11 -11 -11 -10 -9 -8 -7 -6 -5 -5 -6
-11 -11 -11 -11 -10 -10 -10 -10 -11 -11 -10 -10 -11 -11 -11 -10 -11 -11 -10 -10 -9 -9 -8 -7 -6 -6 -6
-11 -11 -11 -10 -10 -10 -10 -10 -10 -10 -10 -9 -10 -10 -10 -10 -10 -10 -10 -10 -9 -9 -8 -7 -6 -6 -6
-11 -11 -10 -10 -10 -10 -10 -10 -9 -10 -10 -9 -9 -10 -10 -10 -9 -10 -9 -9 -10 -9 -7 -6 -6 -6 -6
-11 -10 -10 -10 -10 -10 -10 -10 -10 -10 -10 -9 -9 -10 -9 -9 -9 -9 -8 -8 -8 -7 -6 -6 -6 -6 -6
-10 -10 -10 -10 -10 -10 -10 -10 -11 -10 -9 -10 -9 -9 -9 -8 -8 -9 -7 -7 -7 -7 -7 -6 -7 -6 -6
-9 -9 -10 -10 -9 -9 -9 -9 -10 -9 -10 -9 -9 -9 -10 -9 -8 -8 -8 -8 -8 -7 -7 -6 -7 -8 -5
-9 -9 -9 -9 -9 -9 -9 -9 -9 -9 -9 -9 -9 -9 -9 -8 -10 -8 -8 -8 -7 -7 -7 -6 -6 -7 -6

GFSFLT2_850_dewp_018.txt.gz
Dewpoint
-11 -9 -9 -9 -9 -10 -11 -8 -9 -9 -9 -8 -9 -8 -7 -7 -6 -6 -6 -5 -5 -5 -4 -4 -4 -4 -4
-8 -9 -9 -10 -11 -10 -8 -9 -11 -11 -10 -9 -8 -8 -7 -7 -7 -6 -6 -6 -6 -5 -5 -5 -5 -5 -4
-9 -10 -11 -11 -9 -9 -10 -12 -11 -12 -10 -10 -9 -8 -8 -7 -7 -7 -7 -7 -7 -6 -6 -6 -6 -5 -5
-9 -9 -9 -9 -8 -10 -11 -11 -12 -12 -12 -13 -9 -13 -10 -9 -8 -8 -7 -7 -7 -7 -7 -6 -6 -6 -6
-8 -8 -7 -10 -9 -10 -10 -11 -12 -11 -9 -13 -12 -13 -12 -12 -12 -11 -8 -7 -7 -6 -6 -6 -6 -6 -5
-8 -9 -10 -9 -10 -10 -12 -10 -9 -9 -10 -13 -12 -12 -12 -11 -11 -8 -8 -7 -7 -6 -6 -6 -6 -6 -5
-10 -10 -10 -10 -10 -10 -9 -8 -9 -12 -11 -11 -12 -11 -11 -12 -12 -10 -8 -8 -7 -6 -6 -6 -6 -5 -5
-10 -10 -10 -10 -9 -9 -9 -9 -11 -12 -10 -10 -11 -11 -11 -12 -12 -12 -11 -11 -7 -6 -6 -6 -6 -5 -5
-10 -9 -9 -9 -9 -9 -10 -10 -10 -11 -10 -10 -11 -11 -11 -12 -12 -11 -11 -9 -11 -10 -8 -7 -6 -5 -5
-11 -12 -12 -12 -11 -11 -10 -10 -10 -10 -11 -10 -11 -11 -11 -11 -11 -11 -11 -11 -11 -10 -10 -9 -9 -7 -6
-12 -12 -12 -11 -10 -10 -10 -10 -10 -11 -11 -10 -11 -10 -10 -10 -11 -11 -11 -11 -10 -10 -10 -10 -9 -8 -6
-11 -12 -11 -10 -10 -10 -10 -10 -10 -10 -10 -10 -11 -10 -10 -10 -10 -11 -11 -11 -10 -10 -9 -10 -10 -9 -7
-11 -11 -10 -10 -10 -10 -10 -10 -10 -10 -10 -10 -9 -9 -10 -10 -10 -10 -9 -10 -10 -9 -9 -9 -8 -8 -7
-10 -10 -10 -10 -10 -10 -9 -9 -10 -10 -10 -10 -9 -10 -10 -10 -9 -9 -10 -9 -9 -9 -8 -8 -8 -7 -7
-10 -10 -10 -10 -9 -9 -9 -9 -10 -9 -9 -10 -10 -9 -10 -9 -9 -10 -9 -8 -8 -8 -8 -8 -8 -7 -7
-9 -9 -9 -9 -9 -9 -9 -9 -9 -9 -9 -9 -9 -9 -10 -9 -9 -9 -9 -9 -9 -8 -8 -8 -7 -7 -7
-9 -9 -9 -9 -9 -9 -9 -9 -8 -9 -9 -9 -9 -9 -9 -9 -9 -8 -8 -8 -8 -8 -7 -7 -7 -7 -7

GFSFLT2_850_dewp_021.txt.gz
Dewpoint
-14 -14 -12 -12 -14 -13 -13 -11 -11 -13 -9 -8 -8 -8 -7 -7 -7 -6 -6 -6 -5 -5 -4 -4 -4 -4 -4
-11 -11 -11 -12 -12 -11 -10 -11 -13 -13 -10 -9 -9 -8 -8 -7 -6 -6 -7 -6 -5 -5 -5 -5 -5 -4 -4
-9 -9 -10 -11 -9 -9 -11 -12 -12 -12 -11 -13 -11 -11 -8 -7 -7 -7 -7 -7 -7 -6 -6 -6 -5 -5 -5
-8 -9 -10 -9 -9 -11 -11 -11 -12 -12 -11 -12 -10 -13 -13 -12 -11 -11 -11 -8 -7 -7 -6 -6 -6 -6 -5
-9 -10 -8 -9 -11 -10 -10 -11 -11 -11 -10 -9 -12 -13 -13 -12 -12 -12 -11 -8 -7 -7 -6 -6 -6 -6 -5
-9 -8 -10 -11 -10 -10 -10 -10 -9 -10 -9 -10 -13 -13 -13 -12 -12 -10 -9 -8 -8 -7 -7 -6 -6 -5 -5
-10 -11 -10 -10 -10 -10 -9 -9 -9 -11 -11 -10 -13 -12 -12 -12 -12 -12 -12 -10 -8 -7 -6 -6 -6 -5 -5
-11 -10 -10 -10 -9 -9 -10 -10 -10 -11 -11 -10 -11 -11 -11 -12 -12 -13 -12 -12 -8 -8 -7 -7 -7 -6 -6
-12 -10 -9 -10 -10 -10 -10 -10 -11 -11 -11 -10 -11 -11 -11 -12 -12 -12 -11 -11 -11 -11 -9 -8 -7 -7 -6
-10 -12 -12 -12 -11 -10 -10 -10 -10 -11 -11 -10 -11 -11 -10 -11 -11 -11 -12 -12 -12 -11 -11 -10 -9 -8 -7
-12 -12 -12 -11 -10 -10 -10 -10 -10 -10 -10 -10 -11 -11 -11 -11 -11 -11 -11 -11 -11 -11 -11 -10 -9 -9 -7
-12 -11 -11 -10 -10 -10 -10 -10 -10 -9 -10 -10 -10 -10 -10 -11 -11 -11 -11 -11 -11 -11 -11 -11 -10 -10 -9
-11 -11 -10 -10 -10 -10 -10 -10 -9 -10 -10 -9 -9 -9 -10 -10 -10 -10 -10 -11 -11 -11 -10 -10 -9 -9 -8
-10 -10 -10 -10 -10 -10 -9 -9 -9 -10 -10 -9 -9 -9 -10 -9 -9 -9 -10 -10 -10 -10 -9 -9 -9 -8 -8
-10 -10 -10 -9 -9 -9 -9 -9 -9 -9 -9 -10 -9 -9 -9 -9 -9 -10 -10 -10 -10 -9 -8 -8 -8 -8 -8
-9 -9 -9 -9 -9 -9 -9 -9 -9 -9 -9 -9 -9 -9 -10 -10 -9 -9 -10 -9 -9 -8 -8 -8 -8 -8 -7
-9 -9 -9 -9 -9 -9 -9 -9 -9 -9 -9 -9 -9 -9 -9 -9 -9 -8 -8 -8 -8 -8 -8 -7 -7 -7 -7

GFSFLT2_850_dewp_024.txt.gz
Dewpoint
-14 -14 -13 -15 -16 -16 -16 -14 -15 -17 -10 -8 -7 -7 -7 -7 -7 -6 -6 -6 -5 -5 -4 -4 -4 -3 -3
-10 -11 -11 -13 -12 -13 -14 -17 -15 -15 -13 -8 -8 -8 -7 -7 -7 -6 -6 -6 -6 -5 -5 -5 -5 -4 -4
-9 -9 -10 -12 -12 -13 -14 -14 -14 -14 -13 -12 -13 -13 -9 -7 -7 -7 -7 -7 -7 -7 -6 -6 -5 -5 -5
-9 -9 -9 -11 -11 -11 -12 -13 -13 -12 -13 -12 -13 -12 -12 -14 -14 -13 -12 -12 -9 -7 -7 -6 -6 -6 -5
-8 -9 -10 -10 -11 -12 -11 -11 -11 -12 -12 -10 -13 -12 -14 -14 -14 -13 -13 -11 -7 -7 -7 -6 -6 -6 -6
-8 -9 -10 -11 -12 -11 -10 -9 -9 -11 -11 -11 -12 -12 -13 -12 -12 -12 -12 -8 -8 -7 -7 -7 -6 -7 -6
-9 -10 -10 -12 -10 -10 -9 -9 -10 -12 -11 -11 -11 -11 -12 -12 -12 -12 -12 -12 -9 -8 -7 -7 -7 -6 -6
-10 -10 -9 -9 -9 -9 -10 -11 -11 -11 -10 -10 -11 -11 -11 -11 -12 -12 -12 -12 -12 -8 -8 -7 -7 -7 -6
-11 -10 -10 -10 -11 -11 -11 -10 -10 -10 -10 -10 -11 -10 -11 -11 -12 -12 -12 -12 -11 -11 -9 -8 -8 -7 -7
-12 -12 -13 -12 -11 -11 -10 -10 -10 -10 -10 -10 -10 -11 -10 -11 -11 -11 -11 -12 -12 -12 -11 -9 -8 -8 -8
-13 -13 -12 -12 -11 -10 -10 -10 -10 -10 -10 -10 -10 -11 -11 -10 -10 -11 -11 -11 -11 -11 -11 -11 -10 -9 -8
-12 -12 -11 -11 -11 -10 -10 -10 -10 -9 -9 -9 -10 -10 -10 -11 -11 -10 -10 -11 -10 -11 -11 -11 -11 -11 -9
-11 -11 -10 -10 -10 -10 -10 -10 -10 -10 -9 -8 -9 -9 -9 -10 -10 -9 -10 -10 -10 -10 -11 -10 -10 -9 -9
-10 -10 -10 -10 -10 -10 -10 -9 -9 -10 -10 -9 -9 -9 -9 -9 -9 -9 -10 -9 -10 -11 -10 -9 -9 -9 -9
-10 -10 -9 -9 -9 -9 -10 -9 -9 -9 -10 -10 -10 -9 -9 -9 -9 -9 -10 -10 -10 -10 -8 -8 -9 -8 -8
-9 -9 -9 -9 -9 -10 -9 -9 -9 -9 -10 -10 -9 -9 -10 -10 -9 -10 -10 -9 -9 -8 -8 -8 -8 -8 -8
-9 -9 -9 -9 -9 -9 -9 -9 -9 -9 -10 -9 -9 -9 -10 -10 -10 -8 -8 -8 -8 -8 -8 -8 -8 -8 -8

GFSFLT2_850_dewp_027.txt.gz
Dewpoint
-15 -15 -14 -16 -18 -17 -18 -18 -19 -21 -20 -15 -7 -7 -7 -7 -6 -6 -6 -5 -5 -5 -4 -4 -4 -3 -3
-13 -12 -12 -13 -13 -13 -15 -19 -19 -18 -16 -13 -8 -9 -7 -7 -6 -6 -6 -6 -6 -6 -5 -5 -5 -4 -4
-10 -10 -10 -12 -12 -14 -15 -18 -17 -15 -14 -13 -13 -12 -8 -7 -7 -7 -7 -7 -7 -7 -7 -6 -6 -5 -5
-10 -9 -9 -11 -11 -12 -14 -16 -13 -13 -14 -12 -13 -12 -12 -13 -13 -14 -14 -14 -13 -8 -7 -7 -6 -6 -5
-8 -8 -9 -10 -11 -12 -13 -11 -11 -12 -13 -12 -12 -12 -13 -13 -12 -13 -13 -13 -12 -8 -7 -6 -6 -6 -6
-8 -8 -9 -10 -12 -12 -10 -9 -10 -11 -12 -12 -12 -12 -12 -12 -12 -13 -12 -12 -8 -7 -7 -7 -7 -6 -6
-9 -9 -10 -13 -11 -9 -9 -9 -10 -11 -11 -11 -11 -12 -12 -12 -12 -12 -12 -12 -10 -8 -7 -7 -7 -7 -7
-11 -12 -11 -10 -9 -9 -9 -10 -11 -11 -11 -11 -11 -11 -11 -12 -12 -13 -12 -12 -12 -10 -8 -7 -7 -7 -7
-13 -12 -10 -11 -11 -11 -11 -11 -11 -11 -11 -11 -11 -10 -11 -11 -12 -12 -11 -11 -11 -11 -10 -8 -8 -8 -7
-15 -13 -13 -13 -12 -11 -11 -10 -10 -10 -10 -10 -10 -10 -10 -11 -11 -10 -11 -11 -11 -11 -11 -10 -9 -8 -8
-14 -13 -12 -12 -11 -11 -10 -10 -10 -10 -10 -10 -10 -10 -11 -10 -10 -10 -11 -11 -11 -11 -11 -11 -10 -9 -9
-12 -12 -11 -11 -11 -10 -10 -10 -10 -10 -10 -9 -10 -9 -10 -11 -11 -10 -10 -10 -10 -10 -10 -10 -11 -10 -9
-12 -11 -10 -10 -10 -10 -10 -10 -10 -10 -10 -10 -9 -9 -10 -10 -10 -10 -10 -10 -9 -10 -10 -10 -10 -10 -10
-11 -10 -10 -10 -10 -10 -10 -10 -10 -10 -10 -10 -10 -9 -9 -9 -9 -9 -9 -9 -10 -11 -10 -9 -9 -8 -9
-10 -10 -9 -9 -10 -10 -10 -10 -9 -10 -10 -10 -10 -9 -9 -9 -9 -9 -10 -10 -10 -10 -9 -8 -9 -9 -9
-9 -9 -9 -9 -9 -9 -9 -9 -9 -9 -9 -9 -9 -9 -10 -10 -10 -10 -10 -10 -10 -9 -8 -8 -8 -8 -8
-9 -9 -9 -9 -9 -8 -8 -8 -9 -9 -9 -9 -9 -10 -10 -10 -11 -9 -9 -9 -8 -9 -9 -8 -8 -8 -9

GFSFLT2_850_dewp_030.txt.gz
Dewpoint
-16 -17 -17 -18 -19 -21 -19 -19 -20 -22 -22 -20 -13 -7 -7 -6 -6 -6 -5 -5 -5 -4 -4 -4 -4 -4 -3
-16 -16 -16 -18 -17 -15 -16 -17 -19 -21 -18 -15 -14 -13 -11 -8 -7 -6 -6 -6 -5 -5 -5 -5 -5 -4 -4
-15 -14 -14 -14 -13 -14 -14 -19 -20 -17 -14 -14 -14 -14 -14 -10 -7 -7 -7 -7 -7 -7 -6 -6 -6 -6 -5
-13 -12 -10 -11 -11 -12 -13 -16 -14 -14 -14 -13 -14 -13 -13 -13 -12 -12 -12 -12 -9 -7 -7 -7 -6 -6 -6
-11 -8 -9 -11 -11 -11 -12 -12 -12 -14 -14 -13 -13 -13 -13 -13 -12 -12 -12 -12 -12 -8 -7 -6 -6 -6 -6
-8 -9 -10 -10 -10 -12 -10 -9 -10 -13 -12 -12 -12 -13 -12 -12 -12 -12 -12 -13 -12 -8 -7 -7 -7 -6 -6
-9 -10 -9 -11 -10 -9 -9 -10 -11 -12 -12 -11 -12 -12 -12 -12 -12 -12 -13 -13 -12 -12 -9 -7 -7 -7 -7
-11 -11 -10 -9 -9 -9 -11 -11 -11 -12 -11 -10 -12 -11 -11 -12 -12 -12 -12 -12 -11 -11 -8 -7 -7 -7 -7
-13 -12 -12 -13 -13 -12 -12 -11 -11 -11 -11 -10 -11 -10 -11 -12 -12 -11 -11 -11 -11 -11 -11 -10 -8 -8 -7
-17 -16 -14 -13 -12 -11 -10 -10 -10 -10 -10 -10 -10 -10 -10 -11 -11 -10 -11 -11 -11 -11 -11 -10 -9 -9 -8
-17 -13 -12 -12 -11 -11 -10 -10 -9 -9 -10 -10 -11 -10 -11 -10 -10 -11 -11 -11 -11 -11 -10 -10 -9 -9 -9
-13 -12 -12 -11 -11 -10 -10 -10 -10 -10 -10 -10 -10 -9 -9 -10 -10 -11 -10 -10 -10 -9 -9 -10 -10 -10 -10
-12 -11 -11 -10 -10 -10 -10 -10 -10 -10 -9 -9 -9 -9 -9 -9 -10 -10 -10 -10 -9 -9 -10 -10 -10 -10 -9
-11 -10 -10 -10 -10 -9 -9 -9 -9 -10 -9 -9 -9 -9 -9 -9 -10 -10 -9 -9 -11 -11 -10 -10 -9 -9 -9
-10 -10 -9 -9 -9 -9 -8 -8 -8 -9 -9 -10 -10 -9 -10 -10 -10 -10 -10 -10 -11 -10 -9 -9 -9 -9 -9
-10 -9 -9 -9 -9 -9 -8 -8 -9 -9 -9 -10 -10 -10 -10 -11 -11 -10 -10 -11 -10 -9 -9 -9 -9 -9 -9
-9 -9 -9 -9 -9 -9 -8 -9 -9 -9 -9 -10 -9 -8 -9 -10 -11 -9 -9 -9 -9 -9 -9 -9 -9 -9 -9

GFSFLT2_850_dewp_033.txt.gz
Dewpoint
-10 -13 -18 -19 -19 -20 -21 -21 -22 -25 -25 -24 -22 -14 -8 -6 -6 -6 -6 -5 -5 -4 -4 -4 -3 -3 -3
-15 -19 -18 -20 -19 -21 -19 -21 -20 -24 -24 -21 -16 -15 -14 -14 -12 -7 -6 -5 -6 -6 -5 -5 -5 -4 -4
-17 -17 -17 -19 -19 -18 -17 -18 -21 -24 -19 -15 -14 -14 -14 -14 -10 -9 -10 -9 -8 -7 -6 -6 -6 -6 -5
-15 -14 -15 -16 -14 -13 -14 -17 -20 -19 -14 -14 -14 -14 -14 -13 -13 -13 -13 -13 -13 -13 -8 -7 -6 -6 -5
-13 -13 -11 -11 -9 -10 -12 -14 -14 -14 -14 -14 -14 -14 -14 -13 -13 -13 -12 -12 -12 -12 -7 -7 -6 -6 -6
-11 -11 -9 -11 -11 -12 -12 -10 -9 -13 -13 -11 -13 -13 -13 -12 -12 -12 -13 -12 -13 -12 -8 -7 -6 -6 -6
-9 -11 -9 -10 -12 -11 -10 -10 -11 -13 -11 -10 -12 -12 -12 -12 -12 -12 -12 -13 -12 -12 -11 -7 -7 -6 -6
-10 -10 -12 -12 -9 -9 -11 -10 -10 -11 -11 -10 -12 -11 -11 -12 -12 -12 -12 -12 -11 -12 -9 -7 -7 -7 -7
-14 -16 -13 -14 -13 -12 -11 -10 -10 -10 -10 -10 -11 -10 -11 -12 -12 -12 -11 -11 -11 -11 -11 -11 -9 -8 -7
-18 -18 -16 -13 -12 -11 -10 -10 -10 -10 -10 -10 -10 -10 -10 -11 -11 -11 -11 -11 -11 -11 -11 -10 -10 -9 -8
-19 -14 -12 -12 -11 -10 -10 -9 -9 -10 -10 -10 -10 -10 -10 -10 -11 -10 -10 -10 -10 -10 -10 -9 -9 -10 -9
-13 -12 -12 -11 -11 -10 -10 -10 -9 -9 -9 -9 -9 -9 -9 -10 -10 -10 -10 -10 -10 -10 -10 -10 -11 -10 -10
-12 -11 -11 -10 -10 -10 -10 -9 -9 -9 -9 -9 -9 -9 -9 -9 -10 -10 -10 -11 -10 -10 -11 -11 -10 -10 -10
-11 -10 -10 -10 -10 -9 -9 -9 -9 -10 -9 -10 -10 -9 -9 -9 -9 -10 -11 -10 -10 -11 -10 -10 -9 -9 -10
-10 -10 -10 -9 -10 -9 -9 -9 -9 -9 -10 -10 -10 -10 -10 -10 -10 -11 -10 -9 -10 -10 -9 -9 -10 -10 -10
-10 -10 -10 -9 -9 -9 -9 -9 -9 -9 -10 -10 -10 -10 -10 -10 -10 -10 -9 -9 -9 -9 -9 -9 -9 -9 -9
-9 -9 -9 -9 -9 -9 -9 -9 -9 -9 -9 -9 -9 -9 -10 -10 -10 -9 -9 -9 -8 -9 -9 -8 -8 -9 -8

GFSFLT2_850_dewp_036.txt.gz
Dewpoint
-4 -7 -3 -1 -5 -17 -18 -18 -21 -25 -26 -25 -25 -26 -21 -10 -9 -7 -6 -5 -5 -4 -4 -4 -3 -3 -3
-0 0 -0 -2 -7 -18 -19 -23 -23 -25 -24 -25 -25 -21 -17 -16 -15 -14 -6 -6 -5 -5 -5 -5 -5 -4 -4
-1 -2 -8 -17 -18 -20 -19 -17 -20 -24 -25 -25 -18 -15 -15 -15 -15 -13 -10 -12 -9 -8 -7 -6 -5 -5 -5
-4 -11 -15 -16 -19 -15 -10 -9 -10 -22 -21 -15 -15 -15 -15 -15 -14 -14 -14 -13 -13 -13 -13 -10 -7 -6 -6
-14 -15 -11 -8 -8 -8 -8 -9 -10 -19 -13 -10 -10 -13 -13 -14 -14 -14 -13 -13 -13 -13 -12 -9 -6 -6 -5
-10 -8 -8 -8 -8 -9 -9 -9 -9 -14 -9 -8 -9 -10 -12 -13 -13 -13 -13 -12 -12 -12 -10 -7 -6 -6 -6
-7 -8 -8 -8 -8 -10 -9 -9 -9 -10 -8 -8 -11 -10 -11 -12 -12 -12 -12 -12 -12 -12 -12 -9 -7 -6 -6
-9 -8 -8 -9 -9 -9 -9 -9 -8 -9 -9 -9 -10 -9 -9 -10 -12 -12 -12 -12 -12 -12 -12 -9 -7 -7 -6
-12 -15 -16 -15 -14 -10 -11 -9 -9 -9 -9 -9 -10 -9 -9 -11 -11 -11 -11 -11 -11 -11 -11 -10 -10 -8 -7
-10 -12 -19 -18 -13 -12 -11 -10 -9 -9 -9 -9 -9 -9 -9 -10 -10 -10 -10 -10 -10 -10 -11 -10 -10 -8 -8
-19 -18 -13 -12 -11 -11 -10 -10 -10 -10 -10 -9 -9 -9 -9 -9 -10 -10 -10 -11 -10 -10 -10 -10 -10 -9 -8
-16 -12 -11 -11 -11 -10 -10 -9 -9 -9 -9 -9 -9 -9 -9 -9 -9 -11 -11 -11 -11 -11 -10 -10 -11 -11 -10
-12 -11 -11 -10 -10 -10 -10 -9 -9 -9 -9 -9 -9 -9 -9 -9 -9 -10 -10 -11 -11 -11 -10 -10 -10 -9 -9
-11 -11 -10 -10 -10 -10 -10 -9 -9 -10 -9 -10 -10 -9 -9 -10 -10 -10 -10 -10 -11 -10 -10 -9 -9 -9 -9
-10 -10 -10 -10 -10 -10 -9 -9 -9 -9 -9 -10 -9 -9 -9 -10 -10 -10 -10 -10 -9 -9 -9 -8 -8 -8 -8
-10 -9 -9 -9 -10 -9 -10 -9 -9 -9 -9 -10 -9 -9 -9 -9 -9 -10 -10 -9 -10 -8 -8 -8 -8 -8 -8
-9 -9 -9 -9 -9 -10 -10 -9 -9 -9 -9 -9 -8 -9 -9 -9 -9 -8 -9 -10 -9 -9 -9 -8 -8 -8 -7

GFSFLT2_850_dewp_039.txt.gz
Dewpoint
1 -5 -8 -5 -1 0 1 1 -0 -8 -20 -27 -31 -30 -30 -30 -29 -24 -12 -7 -5 -4 -4 -3 -3 -3 -3
-2 -1 1 0 0 0 0 -7 -16 -18 -26 -31 -28 -25 -27 -24 -19 -17 -15 -8 -6 -5 -5 -4 -4 -3 -3
1 1 0 -0 -0 -1 -5 -14 -21 -24 -23 -22 -17 -21 -20 -16 -16 -15 -14 -11 -11 -8 -8 -7 -6 -5 -5
-0 -1 -1 -2 -5 -16 -19 -15 -15 -17 -17 -16 -18 -16 -15 -15 -14 -14 -14 -14 -14 -13 -13 -11 -10 -9 -6
-2 -3 -9 -12 -13 -10 -8 -9 -12 -15 -18 -16 -11 -11 -13 -13 -14 -13 -13 -13 -12 -12 -12 -10 -7 -6 -6
-12 -16 -11 -8 -8 -8 -8 -9 -11 -18 -11 -13 -11 -12 -12 -13 -13 -12 -12 -12 -12 -12 -11 -8 -7 -7 -6
-10 -8 -7 -8 -8 -9 -10 -11 -12 -16 -10 -11 -12 -12 -12 -12 -12 -12 -12 -12 -12 -12 -12 -10 -7 -6 -6
-11 -9 -9 -8 -9 -9 -9 -10 -11 -11 -9 -8 -11 -11 -11 -12 -12 -11 -12 -11 -11 -11 -11 -10 -7 -6 -6
-11 -14 -16 -18 -19 -16 -17 -14 -12 -11 -11 -9 -11 -10 -11 -11 -11 -11 -10 -10 -10 -11 -11 -10 -10 -8 -7
-13 -11 -12 -20 -19 -16 -14 -12 -10 -9 -9 -9 -10 -9 -9 -10 -10 -10 -11 -11 -11 -11 -11 -11 -10 -8 -8
-14 -16 -16 -13 -12 -11 -11 -11 -10 -10 -10 -9 -9 -9 -9 -9 -10 -12 -11 -11 -11 -11 -11 -11 -11 -9 -8
-19 -15 -12 -11 -11 -11 -11 -10 -10 -10 -10 -9 -9 -9 -9 -9 -9 -11 -11 -11 -11 -11 -11 -11 -10 -10 -9
-13 -11 -10 -11 -11 -10 -10 -10 -10 -10 -10 -9 -9 -9 -9 -9 -9 -10 -10 -12 -12 -11 -11 -11 -10 -10 -9
-11 -11 -11 -10 -10 -10 -10 -10 -10 -10 -9 -9 -9 -9 -8 -9 -10 -9 -10 -10 -11 -11 -10 -10 -10 -9 -9
-11 -10 -10 -10 -10 -9 -10 -9 -9 -10 -9 -9 -8 -8 -8 -9 -9 -9 -9 -9 -10 -9 -9 -8 -8 -8 -8
-10 -10 -9 -9 -9 -9 -9 -9 -9 -9 -9 -9 -8 -8 -8 -8 -8 -9 -9 -9 -9 -9 -8 -8 -8 -8 -8
-10 -9 -9 -9 -9 -9 -9 -9 -9 -9 -9 -9 -8 -9 -9 -9 -9 -8 -9 -9 -9 -9 -9 -8 -8 -9 -8

GFSFLT2_850_dewp_042.txt.gz
Dewpoint
3 3 0 -0 -2 -1 -5 -3 1 1 2 0 -10 -14 -18 -23 -29 -30 -31 -19 -8 -5 -4 -3 -3 -2 -2
2 2 1 1 -2 -3 -0 1 1 0 -1 -5 -18 -23 -24 -23 -21 -24 -18 -17 -8 -6 -5 -4 -4 -3 -3
2 1 1 -0 -0 -0 -1 -0 -1 -4 -13 -18 -14 -19 -22 -21 -16 -14 -14 -15 -9 -7 -7 -6 -5 -5 -5
1 0 -0 -1 -1 -1 -3 -13 -17 -19 -17 -16 -19 -22 -22 -15 -12 -11 -13 -13 -12 -9 -7 -7 -7 -8 -7
-0 -1 -1 -2 -7 -14 -15 -14 -12 -17 -15 -21 -20 -17 -16 -14 -13 -13 -12 -12 -8 -7 -6 -6 -6 -5 -5
-2 -3 -11 -13 -10 -9 -9 -9 -13 -20 -16 -23 -15 -14 -13 -12 -12 -12 -11 -8 -6 -6 -6 -6 -6 -6 -5
-17 -12 -9 -8 -9 -9 -9 -11 -16 -17 -13 -15 -12 -12 -12 -12 -12 -12 -11 -11 -10 -10 -10 -8 -7 -6 -6
-14 -14 -14 -13 -12 -11 -13 -16 -17 -18 -13 -12 -12 -12 -12 -12 -12 -11 -11 -11 -10 -10 -11 -10 -8 -6 -6
-10 -12 -16 -18 -18 -18 -20 -18 -19 -14 -13 -11 -11 -11 -12 -12 -11 -11 -11 -11 -11 -11 -11 -9 -7 -7 -6
-12 -17 -17 -19 -19 -15 -15 -13 -12 -11 -10 -10 -11 -10 -10 -12 -12 -12 -12 -12 -11 -11 -11 -12 -8 -8 -8
-21 -20 -19 -17 -12 -12 -11 -11 -11 -11 -11 -9 -10 -10 -9 -9 -12 -12 -11 -11 -11 -12 -13 -12 -11 -10 -8
-20 -19 -14 -12 -12 -11 -11 -11 -10 -11 -10 -10 -10 -10 -9 -9 -9 -11 -11 -11 -11 -11 -13 -12 -11 -11 -10
-17 -13 -12 -11 -11 -11 -10 -10 -11 -11 -10 -10 -9 -9 -9 -8 -9 -10 -9 -11 -11 -10 -11 -11 -11 -11 -11
-12 -12 -11 -11 -10 -10 -10 -10 -10 -10 -10 -10 -10 -9 -9 -9 -9 -9 -9 -9 -10 -10 -10 -10 -11 -10 -10
-11 -11 -11 -10 -10 -9 -9 -9 -9 -10 -10 -10 -10 -9 -9 -9 -9 -8 -9 -10 -10 -9 -9 -10 -10 -10 -10
-11 -10 -10 -10 -9 -9 -9 -9 -9 -9 -9 -9 -9 -10 -9 -9 -9 -9 -9 -9 -9 -9 -9 -9 -9 -10 -9
-10 -10 -10 -10 -9 -9 -9 -9 -9 -9 -9 -9 -10 -10 -10 -10 -10 -9 -9 -9 -9 -9 -10 -9 -9 -10 -10

GFSFLT2_850_dewp_045.txt.gz
Dewpoint
3 3 2 2 3 1 1 1 0 -0 -1 -2 -0 -0 -6 -9 -11 -21 -24 -24 -13 -6 -4 -4 -3 -2 -2
2 2 2 1 2 1 1 0 -1 -1 -1 -1 -0 -2 -10 -13 -16 -12 -17 -14 -9 -5 -5 -4 -4 -3 -3
1 1 1 1 1 -1 -1 -1 -2 -1 -1 -2 -6 -14 -17 -21 -21 -12 -7 -8 -8 -6 -5 -4 -4 -4 -4
1 0 0 0 -1 -1 -2 -2 -2 -6 -12 -14 -16 -17 -21 -23 -15 -12 -13 -13 -13 -11 -7 -7 -6 -6 -5
-0 -0 -1 -1 -2 -2 -3 -10 -14 -14 -14 -19 -20 -21 -22 -19 -15 -14 -13 -13 -13 -10 -6 -5 -5 -5 -5
-2 -2 -2 -3 -7 -12 -12 -13 -12 -13 -13 -22 -18 -19 -15 -13 -13 -13 -12 -12 -9 -6 -6 -6 -5 -5 -5
-5 -8 -12 -12 -12 -11 -10 -10 -10 -14 -16 -23 -16 -14 -12 -12 -12 -12 -11 -11 -10 -9 -8 -7 -6 -6 -5
-15 -13 -13 -12 -12 -12 -12 -13 -15 -18 -17 -15 -14 -12 -12 -12 -11 -11 -11 -10 -10 -10 -10 -11 -11 -8 -6
-10 -11 -11 -12 -10 -13 -15 -16 -18 -17 -13 -12 -11 -12 -12 -12 -11 -11 -11 -11 -12 -11 -11 -11 -11 -11 -11
-9 -10 -15 -18 -15 -16 -16 -13 -11 -11 -10 -11 -11 -11 -11 -12 -11 -11 -11 -11 -11 -11 -11 -11 -13 -13 -13
-19 -21 -19 -19 -16 -12 -11 -11 -11 -11 -10 -10 -10 -10 -9 -10 -11 -12 -11 -11 -11 -11 -11 -11 -12 -12 -11
-22 -20 -18 -14 -12 -12 -11 -11 -11 -11 -10 -10 -10 -10 -9 -9 -10 -11 -11 -11 -10 -11 -11 -11 -11 -11 -11
-19 -15 -12 -12 -12 -11 -11 -10 -10 -10 -10 -10 -10 -9 -9 -9 -9 -10 -10 -11 -10 -10 -11 -10 -10 -11 -12
-12 -12 -11 -11 -11 -10 -10 -10 -10 -10 -10 -10 -10 -9 -9 -9 -9 -9 -10 -9 -10 -10 -10 -10 -10 -11 -11
-11 -11 -11 -10 -10 -10 -10 -10 -9 -10 -10 -10 -10 -9 -10 -10 -10 -9 -10 -10 -10 -10 -10 -10 -11 -11 -11
-11 -10 -10 -10 -10 -10 -9 -9 -9 -9 -9 -9 -9 -9 -9 -10 -9 -9 -10 -10 -10 -10 -10 -9 -10 -11 -11
-11 -11 -11 -11 -10 -10 -10 -10 -9 -9 -9 -9 -10 -10 -10 -10 -10 -10 -10 -10 -10 -10 -10 -9 -10 -11 -10

GFSFLT2_850_dewp_048.txt.gz
Dewpoint
4 3 3 3 2 2 1 1 1 -0 -1 -0 -1 -1 -1 -1 -1 -2 -3 -6 -7 -8 -4 -3 -3 -3 -2
3 3 2 1 1 1 1 -0 -0 -0 -1 -1 -1 -2 -2 -2 -2 -4 -5 -10 -11 -11 -6 -4 -4 -3 -2
1 1 0 0 -0 -0 -0 -1 -1 -2 -2 -2 -2 -2 -2 -5 -7 -10 -10 -8 -6 -6 -5 -4 -4 -4 -4
-0 -0 -0 -0 -1 -1 -2 -2 -2 -2 -2 -3 -7 -11 -13 -15 -17 -19 -16 -19 -15 -11 -8 -7 -6 -5 -5
-1 -1 -1 -1 -2 -2 -3 -3 -3 -4 -9 -12 -14 -16 -19 -21 -23 -22 -20 -16 -14 -13 -11 -6 -5 -5 -4
-1 -2 -2 -2 -3 -3 -3 -8 -10 -11 -12 -16 -14 -21 -24 -19 -17 -15 -14 -13 -12 -9 -7 -6 -5 -5 -5
-3 -3 -5 -9 -10 -10 -11 -10 -10 -11 -11 -20 -22 -22 -15 -13 -12 -12 -12 -12 -11 -11 -10 -9 -8 -6 -5
-17 -14 -13 -13 -13 -12 -12 -12 -12 -13 -14 -21 -18 -14 -13 -12 -12 -12 -11 -11 -11 -11 -11 -11 -11 -12 -12
-13 -11 -11 -11 -12 -14 -13 -13 -17 -21 -15 -14 -13 -12 -13 -13 -12 -12 -11 -11 -11 -11 -11 -11 -11 -11 -12
-13 -12 -12 -15 -19 -17 -14 -16 -14 -12 -11 -11 -12 -11 -12 -12 -11 -11 -11 -11 -11 -11 -11 -11 -11 -11 -13
-22 -22 -22 -20 -19 -17 -13 -11 -11 -11 -11 -10 -10 -10 -10 -11 -12 -11 -11 -11 -11 -10 -10 -11 -11 -11 -11
-22 -20 -19 -17 -14 -12 -11 -11 -11 -11 -10 -10 -10 -10 -10 -10 -11 -12 -11 -11 -11 -11 -10 -10 -10 -10 -10
-20 -17 -14 -12 -12 -11 -11 -11 -10 -10 -10 -10 -10 -9 -10 -10 -10 -11 -10 -12 -11 -11 -11 -11 -11 -11 -11
-14 -12 -12 -11 -11 -11 -10 -10 -10 -10 -9 -9 -9 -9 -10 -10 -10 -10 -11 -10 -11 -11 -11 -11 -11 -11 -11
-13 -12 -11 -11 -10 -10 -10 -10 -10 -9 -9 -9 -9 -9 -9 -9 -9 -10 -10 -10 -10 -10 -10 -10 -10 -11 -10
-12 -11 -11 -11 -10 -10 -10 -10 -10 -10 -9 -9 -9 -10 -10 -10 -10 -10 -10 -10 -10 -10 -10 -10 -10 -10 -10
-13 -12 -11 -11 -11 -11 -12 -12 -11 -11 -10 -10 -10 -10 -10 -10 -10 -10 -10 -10 -10 -10 -10 -10 -11 -11 -11

GFSFLT2_850_dewp_051.txt.gz
Dewpoint
4 4 4 3 3 2 0 -0 0 -0 -1 -0 -0 -0 -0 -1 -1 -1 -1 -1 -1 -2 -3 -2 -2 -2 -2
3 3 2 2 2 -0 -1 -1 -1 -1 -1 -1 -1 -1 -1 -2 -2 -2 -1 -2 -3 -3 -5 -5 -3 -3 -3
2 1 1 1 1 -0 -0 -0 -1 -1 -1 -2 -2 -1 -2 -2 -3 -3 -3 -4 -9 -7 -5 -4 -4 -4 -3
0 -0 -0 -0 -0 -1 -1 -2 -2 -2 -2 -2 -2 -2 -2 -3 -5 -9 -13 -15 -18 -15 -11 -8 -8 -6 -5
-1 -1 -1 -1 -1 -2 -2 -2 -2 -3 -3 -3 -4 -8 -11 -13 -16 -20 -21 -22 -20 -16 -14 -14 -9 -5 -5
-1 -2 -2 -2 -3 -3 -3 -4 -6 -7 -11 -13 -13 -15 -17 -19 -23 -26 -22 -19 -18 -15 -9 -6 -5 -5 -5
-3 -4 -4 -7 -9 -11 -11 -11 -12 -13 -14 -19 -19 -21 -24 -25 -22 -17 -14 -13 -12 -11 -9 -6 -6 -5 -5
-21 -18 -16 -15 -14 -14 -14 -14 -14 -15 -16 -21 -26 -23 -15 -14 -13 -12 -12 -12 -11 -11 -11 -10 -9 -10 -11
-14 -11 -11 -11 -11 -13 -16 -19 -18 -20 -18 -15 -14 -13 -12 -12 -12 -12 -12 -11 -11 -10 -11 -11 -11 -12 -12
-15 -14 -14 -15 -16 -18 -18 -17 -16 -13 -12 -11 -11 -11 -12 -11 -11 -10 -10 -10 -10 -10 -11 -11 -11 -11 -12
-23 -23 -23 -22 -20 -19 -18 -14 -12 -11 -11 -10 -10 -10 -9 -11 -12 -11 -10 -10 -10 -11 -11 -10 -10 -10 -11
-23 -22 -21 -20 -17 -14 -13 -12 -12 -11 -11 -10 -10 -10 -10 -10 -10 -12 -12 -12 -11 -11 -11 -11 -11 -10 -10
-21 -19 -17 -14 -13 -12 -12 -12 -11 -11 -10 -10 -10 -9 -10 -10 -10 -11 -11 -12 -12 -12 -12 -11 -11 -10 -10
-16 -14 -13 -12 -12 -11 -11 -10 -10 -10 -9 -9 -9 -9 -9 -9 -9 -10 -10 -10 -10 -10 -10 -10 -10 -11 -11
-18 -15 -12 -12 -11 -11 -10 -10 -10 -10 -10 -10 -9 -9 -9 -10 -10 -10 -10 -10 -10 -10 -10 -10 -10 -10 -10
-18 -14 -12 -12 -12 -11 -11 -11 -11 -12 -11 -11 -11 -10 -10 -10 -10 -10 -10 -10 -10 -10 -10 -10 -10 -10 -11
-19 -17 -15 -14 -13 -12 -13 -13 -14 -13 -13 -12 -11 -10 -9 -9 -10 -10 -10 -10 -10 -10 -11 -11 -11 -12 -12

GFSFLT2_850_dewp_054.txt.gz
Dewpoint
3 3 2 2 3 3 2 2 1 1 2 1 1 -0 0 -0 -0 -1 -0 -1 -1 -1 -1 -1 -1 -1 -1
2 2 2 2 2 2 1 0 -0 0 -0 -1 -1 -1 -1 -1 -1 -1 -1 -1 -1 -2 -2 -2 -2 -3 -2
1 2 1 1 1 1 0 -1 -1 -1 -1 -1 -1 -1 -1 -2 -2 -2 -2 -2 -2 -2 -2 -5 -6 -4 -3
0 0 0 0 0 -0 -1 -1 -1 -1 -2 -2 -2 -2 -2 -2 -3 -2 -2 -2 -4 -7 -13 -13 -13 -9 -5
-0 -0 -1 -1 -1 -1 -1 -2 -2 -2 -3 -3 -3 -3 -3 -5 -6 -10 -13 -16 -19 -20 -20 -12 -14 -14 -11
-2 -2 -2 -3 -3 -3 -4 -4 -5 -6 -7 -9 -11 -13 -14 -15 -18 -19 -21 -23 -24 -23 -21 -20 -13 -6 -5
-16 -15 -12 -13 -13 -14 -15 -15 -15 -16 -16 -20 -20 -21 -22 -24 -25 -25 -24 -20 -15 -13 -10 -6 -5 -5 -5
-20 -18 -16 -15 -15 -15 -15 -16 -18 -19 -19 -23 -24 -24 -19 -16 -16 -16 -15 -13 -12 -12 -9 -7 -6 -6 -6
-20 -16 -13 -11 -12 -15 -16 -18 -22 -22 -19 -15 -13 -13 -13 -13 -13 -13 -13 -12 -12 -12 -11 -11 -11 -11 -12
-20 -21 -23 -22 -22 -22 -21 -20 -19 -15 -12 -12 -12 -12 -12 -12 -12 -11 -11 -11 -11 -11 -10 -11 -11 -12 -12
-24 -24 -24 -23 -22 -21 -20 -17 -14 -12 -12 -11 -11 -11 -10 -10 -12 -11 -11 -11 -11 -10 -11 -11 -11 -11 -11
-23 -23 -23 -21 -18 -15 -13 -12 -12 -12 -11 -11 -10 -10 -10 -10 -10 -11 -11 -11 -11 -11 -11 -10 -11 -11 -11
-22 -21 -18 -15 -14 -13 -12 -12 -12 -11 -10 -10 -10 -10 -9 -9 -10 -10 -10 -10 -10 -11 -11 -11 -11 -11 -11
-22 -20 -17 -15 -13 -12 -12 -12 -11 -11 -10 -10 -10 -9 -9 -9 -9 -10 -10 -10 -10 -10 -10 -10 -10 -10 -10
-22 -20 -17 -14 -13 -12 -12 -12 -11 -11 -11 -11 -11 -11 -11 -10 -10 -10 -10 -10 -10 -10 -10 -10 -10 -10 -10
-23 -21 -19 -17 -15 -14 -13 -12 -12 -13 -13 -13 -14 -13 -12 -10 -10 -10 -10 -10 -10 -10 -10 -10 -11 -11 -11
-23 -22 -22 -20 -19 -18 -17 -16 -16 -16 -15 -15 -14 -12 -10 -10 -10 -10 -10 -10 -11 -11 -11 -11 -11 -11 -11

GFSFLT2_850_dewp_057.txt.gz
Dewpoint
3 2 2 2 1 1 2 2 1 1 2 2 3 3 2 1 2 0 1 0 0 -0 0 0 0 0 0
2 2 2 1 1 1 1 1 2 1 1 2 2 1 1 1 -1 -0 -0 -0 -1 -1 -1 -1 -1 -0 -1
1 1 0 0 0 0 0 0 0 -0 -0 0 -0 -1 -1 -1 -1 -1 -1 -2 -2 -2 -2 -1 -1 -2 -3
0 -0 -0 -0 -0 -0 0 -0 -1 -1 -1 -1 -1 -1 -1 -2 -2 -2 -2 -2 -2 -2 -2 -2 -3 -9 -7
-1 -1 -1 -1 -1 -2 -2 -2 -2 -3 -2 -2 -3 -3 -3 -3 -3 -2 -2 -3 -3 -6 -11 -15 -17 -12 -8
-3 -3 -4 -4 -4 -5 -7 -9 -11 -13 -13 -14 -15 -15 -15 -16 -17 -18 -18 -19 -19 -20 -22 -24 -22 -13 -12
-24 -23 -22 -21 -21 -20 -19 -19 -18 -19 -21 -24 -25 -25 -25 -26 -26 -26 -25 -25 -25 -24 -20 -16 -11 -7 -5
-24 -22 -21 -20 -18 -18 -18 -19 -20 -23 -24 -25 -23 -19 -16 -16 -16 -16 -16 -16 -14 -14 -11 -7 -5 -5 -5
-24 -24 -23 -22 -22 -21 -20 -22 -23 -22 -18 -14 -14 -14 -13 -13 -13 -13 -13 -13 -12 -11 -10 -10 -9 -9 -9
-24 -24 -25 -25 -25 -24 -23 -22 -21 -15 -13 -13 -13 -12 -12 -12 -11 -12 -12 -12 -11 -11 -11 -11 -10 -10 -11
-25 -25 -25 -24 -23 -23 -20 -17 -14 -13 -12 -12 -12 -11 -11 -11 -12 -11 -11 -11 -11 -12 -11 -10 -10 -11 -11
-24 -24 -23 -22 -19 -16 -14 -13 -13 -12 -12 -12 -11 -11 -10 -10 -10 -10 -10 -10 -10 -10 -11 -11 -11 -10 -10
-24 -23 -20 -17 -15 -14 -13 -13 -12 -12 -11 -10 -10 -10 -10 -10 -10 -10 -10 -10 -10 -10 -10 -10 -10 -11 -11
-24 -23 -21 -18 -15 -13 -13 -13 -12 -11 -11 -10 -11 -11 -11 -11 -11 -11 -10 -10 -10 -10 -10 -10 -10 -10 -10
-25 -24 -22 -19 -17 -15 -14 -13 -13 -13 -12 -12 -13 -13 -13 -13 -12 -11 -10 -10 -10 -10 -10 -10 -10 -10 -10
-24 -24 -23 -22 -21 -19 -18 -17 -16 -15 -15 -15 -15 -15 -14 -12 -11 -10 -10 -10 -10 -10 -10 -11 -11 -12 -12
-23 -23 -23 -22 -22 -21 -20 -20 -19 -18 -17 -16 -16 -14 -11 -10 -10 -10 -10 -10 -10 -10 -10 -10 -11 -11 -11

GFSFLT2_850_dewp_060.txt.gz
Dewpoint
4 3 2 2 2 2 0 1 2 1 1 2 2 3 3 3 3 3 2 2 2 2 1 1 0 1 1
2 2 2 1 1 1 1 0 0 1 1 2 2 2 2 2 2 2 1 1 0 0 -0 -0 0 1 0
1 1 1 0 0 0 0 0 0 -0 -0 -0 1 1 1 1 1 1 0 -2 -2 -2 -1 -1 -1 -1 -0
1 0 -0 -1 -1 -1 -1 -1 -1 -1 -1 -1 -1 -1 -1 -1 -1 -1 -2 -2 -2 -2 -2 -2 -2 -2 -2
-1 -2 -2 -2 -2 -2 -3 -3 -4 -3 -3 -3 -2 -2 -2 -2 -2 -2 -2 -2 -2 -2 -2 -2 -2 -3 -7
-6 -5 -6 -8 -12 -14 -18 -21 -13 -20 -23 -23 -24 -24 -24 -24 -21 -18 -16 -13 -11 -11 -12 -15 -18 -20 -20
-26 -23 -21 -22 -22 -21 -20 -20 -17 -18 -24 -25 -25 -26 -27 -28 -28 -28 -28 -27 -26 -25 -25 -24 -23 -20 -14
-25 -23 -22 -22 -21 -20 -20 -21 -21 -18 -26 -20 -17 -16 -15 -16 -16 -17 -17 -17 -18 -17 -16 -15 -9 -5 -5
-25 -25 -25 -25 -25 -23 -21 -21 -17 -15 -19 -15 -13 -14 -13 -13 -13 -13 -13 -13 -13 -13 -12 -8 -7 -6 -6
-24 -24 -25 -25 -26 -25 -24 -23 -21 -13 -15 -14 -13 -13 -11 -11 -12 -12 -12 -12 -12 -12 -12 -12 -12 -11 -10
-25 -25 -25 -25 -24 -23 -21 -17 -15 -14 -13 -13 -13 -12 -11 -11 -12 -11 -11 -11 -10 -11 -12 -12 -12 -11 -11
-24 -24 -24 -24 -21 -17 -15 -14 -13 -13 -12 -12 -12 -11 -11 -11 -10 -10 -10 -10 -10 -10 -10 -10 -11 -12 -11
-24 -24 -23 -21 -18 -16 -15 -14 -13 -13 -12 -12 -11 -11 -10 -11 -11 -11 -11 -11 -11 -10 -10 -10 -10 -10 -10
-25 -24 -24 -21 -19 -16 -14 -14 -13 -13 -12 -12 -11 -11 -11 -12 -12 -12 -12 -12 -11 -10 -10 -10 -10 -10 -10
-25 -25 -24 -23 -21 -20 -18 -17 -16 -15 -12 -12 -13 -13 -14 -14 -14 -13 -12 -11 -10 -10 -10 -10 -10 -10 -11
-25 -24 -24 -23 -23 -22 -21 -20 -19 -18 -17 -16 -16 -16 -16 -15 -13 -12 -10 -10 -10 -10 -10 -10 -10 -10 -11
-24 -24 -23 -23 -22 -22 -21 -21 -20 -19 -19 -18 -17 -16 -14 -11 -10 -10 -10 -10 -10 -10 -10 -10 -10 -10 -10

GFSFLT2_850_dewp_063.txt.gz
Dewpoint
4 4 4 3 2 2 1 1 1 1 1 1 2 2 2 3 3 3 4 4 4 4 3 3 3 2 1
3 2 2 2 1 1 0 0 0 0 0 0 1 2 2 3 3 3 3 3 2 1 1 1 1 1 0
1 1 1 1 1 -0 0 0 0 0 -0 -0 -0 1 1 1 1 2 1 0 0 0 -1 -2 -1 -1 -0
1 1 0 -0 -1 -1 -1 -1 -1 -1 -1 -1 -1 -1 -1 -1 -0 -1 -1 -1 -1 -2 -2 -2 -2 -2 -2
-1 -1 -2 -3 -3 -3 -4 -5 -6 -10 -7 -4 -3 -3 -3 -3 -3 -2 -2 -2 -2 -2 -2 -2 -2 -2 -2
-6 -3 -4 -7 -10 -15 -19 -22 -15 -15 -20 -24 -26 -26 -26 -25 -26 -25 -23 -17 -12 -8 -6 -5 -4 -5 -7
-21 -18 -16 -18 -20 -20 -19 -20 -17 -17 -24 -28 -25 -27 -28 -27 -29 -28 -29 -29 -29 -28 -27 -26 -25 -24 -23
-26 -26 -25 -23 -22 -22 -22 -23 -22 -14 -21 -24 -19 -18 -17 -16 -17 -17 -17 -17 -18 -18 -20 -20 -20 -20 -11
-27 -28 -27 -27 -26 -25 -25 -23 -22 -14 -19 -16 -15 -15 -15 -14 -14 -14 -13 -13 -14 -14 -14 -14 -14 -11 -8
-26 -27 -27 -27 -27 -27 -26 -25 -23 -16 -12 -14 -15 -14 -14 -11 -13 -13 -13 -12 -12 -12 -13 -13 -12 -13 -13
-25 -26 -26 -27 -26 -25 -23 -20 -17 -15 -15 -14 -14 -14 -13 -13 -13 -12 -11 -11 -11 -11 -11 -11 -12 -12 -13
-25 -25 -25 -25 -25 -22 -18 -16 -15 -14 -14 -14 -13 -13 -12 -12 -12 -11 -11 -11 -11 -11 -11 -10 -10 -10 -11
-25 -25 -26 -25 -23 -20 -18 -16 -15 -14 -14 -13 -13 -12 -12 -12 -12 -13 -12 -13 -12 -11 -10 -11 -10 -10 -10
-25 -25 -25 -25 -23 -21 -19 -17 -16 -15 -15 -14 -13 -12 -12 -12 -13 -14 -13 -13 -13 -12 -11 -10 -10 -10 -10
-25 -25 -24 -24 -23 -22 -21 -20 -19 -19 -17 -15 -15 -15 -15 -15 -15 -14 -14 -14 -12 -11 -10 -10 -10 -10 -10
-25 -24 -24 -23 -23 -23 -22 -22 -21 -20 -18 -17 -14 -14 -16 -16 -15 -14 -12 -11 -10 -10 -10 -9 -10 -11 -10
-24 -24 -24 -23 -23 -22 -22 -21 -20 -20 -19 -18 -16 -14 -13 -14 -13 -10 -10 -9 -9 -10 -10 -10 -10 -10 -10

GFSFLT2_850_dewp_066.txt.gz
Dewpoint
5 5 4 3 3 3 2 1 0 0 0 0 1 2 2 2 3 3 3 4 4 4 4 4 4 3 3
3 3 2 2 2 1 1 0 0 0 0 0 0 1 1 2 2 3 3 3 3 3 2 1 1 0 0
2 2 1 1 1 1 -0 -1 -0 -0 -0 -0 -0 -0 0 1 0 1 0 0 1 1 0 0 0 -1 -1
1 0 0 -0 -0 -1 -1 -1 -2 -2 -2 -2 -1 -1 -1 -1 -1 -1 -0 -0 -0 -1 -1 -1 -1 -2 -2
-1 -1 -3 -7 -7 -7 -6 -7 -11 -16 -18 -17 -14 -10 -7 -5 -4 -3 -3 -2 -2 -2 -2 -2 -2 -2 -2
-10 -13 -10 -11 -18 -20 -21 -24 -24 -23 -23 -21 -26 -27 -26 -26 -28 -29 -29 -28 -26 -23 -17 -12 -9 -8 -6
-23 -20 -17 -18 -20 -22 -23 -24 -25 -24 -27 -27 -28 -25 -27 -25 -24 -22 -24 -25 -26 -28 -29 -29 -28 -27 -26
-25 -24 -23 -24 -24 -24 -24 -25 -25 -25 -23 -26 -23 -20 -18 -18 -17 -17 -17 -16 -17 -17 -18 -19 -20 -21 -22
-27 -27 -27 -28 -28 -28 -28 -28 -28 -22 -21 -18 -18 -17 -16 -16 -15 -14 -14 -14 -14 -14 -14 -14 -14 -14 -14
-24 -26 -27 -28 -28 -29 -28 -28 -26 -21 -15 -15 -16 -15 -15 -15 -14 -14 -13 -13 -13 -13 -12 -13 -13 -13 -13
-26 -27 -27 -27 -27 -27 -26 -23 -19 -17 -16 -15 -15 -14 -14 -15 -15 -13 -13 -12 -12 -12 -11 -11 -11 -11 -11
-26 -26 -26 -26 -26 -25 -22 -19 -17 -16 -15 -14 -14 -14 -14 -14 -15 -14 -13 -13 -13 -13 -12 -11 -11 -11 -10
-26 -26 -26 -26 -25 -25 -22 -19 -17 -16 -15 -14 -14 -14 -14 -14 -14 -15 -15 -15 -13 -12 -12 -12 -12 -11 -11
-26 -26 -24 -25 -25 -25 -24 -21 -20 -19 -18 -17 -16 -15 -14 -14 -14 -15 -15 -15 -14 -14 -13 -12 -11 -11 -11
-26 -26 -25 -25 -25 -24 -24 -23 -22 -22 -21 -20 -19 -18 -18 -17 -16 -16 -16 -15 -14 -12 -11 -10 -11 -11 -10
-26 -25 -25 -25 -24 -24 -23 -23 -22 -21 -21 -20 -19 -18 -18 -16 -15 -15 -14 -13 -11 -10 -10 -9 -10 -11 -11
-25 -25 -24 -24 -23 -23 -22 -22 -21 -20 -19 -19 -18 -17 -15 -14 -13 -12 -11 -11 -10 -10 -10 -10 -10 -12 -12

GFSFLT2_850_dewp_069.txt.gz
Dewpoint
6 5 5 5 3 2 2 1 1 0 0 -0 1 1 1 2 2 2 2 2 3 4 3 3 4 5 5
5 4 4 2 2 2 1 1 -0 0 0 -0 -0 -0 1 1 1 2 2 3 3 4 4 3 3 3 2
3 3 2 2 1 1 1 -0 -1 -1 -1 -1 -1 -1 -1 -0 1 0 0 0 0 0 2 1 0 0 0
2 1 1 0 0 -0 -1 -1 -1 -2 -3 -3 -3 -3 -2 -1 -1 -1 -1 -1 -1 -1 -0 -0 -0 -0 -0
0 -0 -2 -4 -8 -6 -5 -6 -9 -13 -17 -19 -21 -21 -19 -16 -9 -4 -3 -2 -2 -2 -2 -2 -2 -1 -1
-3 -8 -12 -11 -12 -15 -20 -22 -24 -24 -23 -21 -24 -26 -26 -27 -28 -30 -31 -31 -30 -28 -27 -26 -23 -19 -16
-22 -18 -18 -18 -16 -22 -25 -26 -25 -25 -27 -26 -28 -27 -25 -24 -22 -20 -21 -22 -24 -25 -26 -28 -29 -29 -28
-26 -25 -24 -23 -22 -24 -25 -25 -25 -26 -24 -25 -24 -20 -18 -17 -17 -16 -17 -16 -16 -16 -16 -17 -18 -18 -19
-28 -28 -28 -27 -28 -28 -28 -28 -27 -26 -21 -19 -18 -17 -17 -16 -15 -15 -15 -15 -14 -14 -14 -14 -14 -15 -15
-24 -26 -27 -27 -28 -29 -28 -28 -27 -24 -17 -16 -17 -16 -15 -15 -14 -14 -14 -14 -13 -13 -12 -12 -12 -12 -13
-26 -27 -27 -27 -27 -27 -26 -25 -22 -19 -18 -16 -16 -15 -15 -15 -15 -15 -14 -13 -12 -12 -12 -12 -12 -11 -11
-26 -26 -26 -27 -27 -26 -25 -22 -20 -17 -16 -16 -15 -15 -15 -15 -16 -15 -14 -14 -14 -14 -14 -13 -12 -11 -11
-25 -26 -26 -28 -27 -26 -25 -23 -20 -18 -16 -15 -15 -15 -15 -15 -15 -16 -16 -15 -15 -13 -13 -13 -13 -12 -12
-25 -25 -25 -25 -25 -26 -26 -25 -23 -20 -19 -19 -18 -18 -17 -17 -17 -16 -16 -16 -16 -15 -15 -14 -13 -12 -12
-25 -25 -25 -25 -25 -25 -25 -24 -23 -23 -22 -21 -21 -19 -19 -18 -18 -17 -16 -16 -15 -14 -13 -12 -12 -11 -11
-25 -25 -25 -25 -25 -24 -24 -23 -23 -22 -22 -21 -20 -19 -18 -16 -15 -15 -14 -14 -12 -12 -11 -10 -12 -13 -12
-24 -25 -24 -24 -24 -23 -23 -22 -22 -21 -20 -19 -18 -17 -15 -13 -13 -12 -14 -13 -12 -12 -12 -12 -12 -15 -15

GFSFLT2_850_dewp_072.txt.gz
Dewpoint
6 5 5 5 5 4 4 2 1 1 0 0 -0 1 1 1 2 2 3 2 2 4 5 5 5 5 4
6 5 5 4 3 3 1 1 1 -0 -0 -0 -0 0 0 1 1 2 2 2 2 3 1 1 2 2 3
5 4 3 3 2 1 1 1 -0 -1 -1 -1 -1 -1 -1 -0 0 1 1 1 1 1 1 2 3 2 2
3 3 2 1 1 -0 -0 -0 -1 -2 -2 -3 -3 -3 -3 -2 -1 0 -0 -1 -1 -1 -1 -1 -0 -0 -0
2 2 1 0 -3 -3 -2 -3 -4 -7 -9 -14 -18 -20 -20 -16 -9 -4 -3 -2 -1 -1 -1 -1 -1 -1 -1
-0 -1 -3 -10 -12 -12 -14 -16 -20 -23 -19 -19 -21 -24 -26 -25 -26 -27 -29 -29 -27 -22 -17 -15 -13 -10 -8
-17 -13 -15 -14 -13 -17 -20 -22 -23 -24 -23 -24 -25 -26 -24 -24 -23 -20 -21 -22 -24 -26 -26 -28 -30 -31 -31
-27 -22 -21 -19 -19 -21 -23 -23 -24 -24 -25 -24 -25 -22 -20 -18 -17 -17 -18 -17 -17 -16 -16 -17 -17 -18 -19
-27 -27 -26 -26 -26 -26 -27 -27 -28 -27 -24 -22 -20 -18 -17 -16 -16 -16 -16 -16 -15 -14 -14 -15 -15 -15 -15
-23 -24 -26 -26 -27 -28 -28 -28 -29 -28 -24 -18 -17 -17 -16 -15 -14 -15 -15 -15 -14 -14 -13 -13 -13 -13 -13
-24 -25 -26 -26 -26 -26 -26 -26 -26 -23 -18 -18 -17 -16 -15 -15 -15 -15 -15 -14 -13 -13 -13 -13 -13 -13 -13
-26 -26 -25 -25 -25 -25 -25 -24 -22 -20 -18 -17 -16 -16 -15 -15 -15 -15 -15 -14 -14 -14 -14 -14 -14 -14 -13
-25 -25 -25 -25 -26 -26 -25 -24 -22 -20 -19 -17 -16 -16 -16 -16 -16 -16 -16 -15 -15 -15 -14 -13 -13 -13 -13
-25 -25 -25 -24 -24 -25 -25 -25 -24 -23 -22 -20 -20 -20 -19 -19 -18 -17 -17 -17 -16 -16 -16 -16 -15 -14 -14
-25 -25 -25 -25 -25 -24 -24 -24 -24 -23 -22 -22 -22 -21 -20 -19 -18 -18 -17 -16 -16 -15 -15 -15 -14 -13 -12
-25 -26 -25 -25 -25 -25 -24 -24 -24 -23 -23 -22 -21 -21 -20 -18 -16 -15 -15 -15 -14 -13 -12 -12 -14 -14 -13
-21 -23 -24 -25 -25 -24 -23 -23 -22 -22 -21 -21 -20 -18 -17 -14 -13 -12 -14 -14 -14 -14 -13 -13 -14 -17 -17

GFSFLT2_850_dewp_075.txt.gz
Dewpoint
6 6 6 5 5 5 5 4 3 2 1 0 -0 -1 1 1 2 2 3 3 3 4 5 5 6 6 7
5 5 5 5 4 4 3 3 1 1 0 -0 -0 -0 -1 1 1 1 2 2 2 3 4 5 5 5 5
4 4 4 4 4 3 2 1 1 0 -1 -1 -1 -1 -1 -0 0 0 1 1 1 2 1 1 1 2 2
2 3 3 3 2 2 0 0 0 -1 -1 -2 -3 -3 -2 -2 -1 -0 -0 0 -0 -0 -1 -0 -0 1 2
2 2 2 2 1 0 -2 -1 -2 -2 -4 -7 -11 -16 -19 -15 -8 -5 -2 -1 -1 -1 -1 -1 -1 -1 -1
1 1 1 1 -1 -8 -9 -8 -10 -17 -18 -21 -21 -20 -22 -23 -25 -26 -27 -23 -11 -4 -3 -2 -2 -1 -1
-2 -3 -5 -8 -10 -10 -12 -16 -19 -22 -23 -22 -24 -25 -25 -24 -25 -25 -25 -27 -29 -30 -30 -30 -31 -31 -30
-27 -15 -12 -14 -14 -15 -17 -20 -21 -23 -24 -24 -24 -25 -24 -21 -19 -19 -19 -19 -19 -18 -18 -19 -20 -21 -22
-25 -24 -20 -22 -22 -22 -23 -23 -25 -26 -24 -23 -22 -21 -19 -17 -17 -17 -17 -17 -16 -15 -15 -15 -15 -16 -16
-22 -24 -25 -26 -27 -27 -27 -27 -28 -28 -24 -21 -19 -18 -16 -15 -15 -15 -15 -15 -15 -15 -14 -14 -14 -14 -14
-21 -23 -24 -26 -26 -26 -26 -27 -27 -27 -20 -16 -17 -17 -16 -15 -15 -14 -15 -16 -15 -15 -14 -14 -14 -14 -14
-23 -24 -25 -25 -25 -25 -25 -25 -25 -23 -21 -19 -17 -17 -16 -16 -16 -16 -16 -16 -15 -14 -14 -15 -15 -15 -15
-25 -25 -25 -25 -26 -27 -27 -27 -26 -23 -21 -19 -18 -17 -16 -16 -16 -16 -16 -16 -16 -16 -15 -15 -15 -15 -13
-25 -25 -25 -26 -25 -25 -25 -26 -26 -25 -24 -22 -20 -19 -19 -19 -19 -19 -18 -17 -17 -16 -15 -15 -15 -15 -16
-24 -24 -24 -25 -25 -24 -24 -24 -24 -25 -24 -23 -22 -22 -21 -21 -20 -19 -18 -18 -17 -16 -16 -16 -16 -15 -15
-23 -24 -24 -24 -24 -25 -24 -24 -24 -24 -23 -23 -22 -22 -21 -20 -19 -17 -15 -14 -13 -13 -13 -14 -16 -14 -13
-22 -22 -22 -21 -23 -24 -24 -24 -23 -22 -22 -21 -21 -20 -18 -16 -14 -13 -12 -12 -13 -14 -13 -13 -16 -18 -17

GFSFLT2_850_dewp_078.txt.gz
Dewpoint
4 5 4 6 5 5 5 5 4 4 2 1 0 -0 -2 1 2 2 2 2 3 4 4 5 4 6 7
5 5 5 5 4 4 4 4 4 2 1 0 -0 -0 -1 -0 1 1 1 2 2 3 4 4 5 6 6
3 3 4 4 4 4 4 3 3 1 0 -0 -1 -1 -1 -1 -1 0 1 1 1 2 2 3 4 4 5
2 2 2 3 3 3 2 2 0 0 -0 -1 -2 -2 -2 -2 -1 -0 -0 -1 0 0 1 1 0 1 1
1 1 1 2 2 1 1 1 -1 -0 -1 -2 -4 -6 -9 -10 -7 -4 -3 -1 -0 -0 -0 -1 -1 -1 -1
0 -0 1 1 0 0 -0 -4 -3 -4 -5 -9 -15 -19 -21 -21 -22 -24 -24 -17 -7 -2 -1 -1 -1 -2 -2
-0 -0 -1 -0 -2 -3 -8 -10 -12 -16 -21 -23 -22 -23 -24 -24 -26 -27 -27 -29 -30 -30 -28 -17 -10 -8 -6
-16 -11 -10 -5 -11 -11 -9 -13 -17 -19 -21 -23 -24 -24 -24 -23 -23 -22 -20 -20 -21 -21 -22 -24 -26 -28 -29
-24 -23 -21 -15 -16 -17 -17 -19 -21 -23 -23 -23 -22 -23 -23 -19 -18 -18 -17 -18 -17 -17 -16 -16 -17 -17 -17
-22 -23 -25 -26 -27 -27 -26 -26 -27 -28 -27 -22 -21 -19 -17 -17 -17 -16 -16 -16 -16 -15 -15 -15 -14 -15 -15
-22 -21 -22 -24 -26 -26 -27 -27 -28 -29 -25 -22 -19 -17 -17 -16 -16 -15 -15 -15 -16 -16 -15 -15 -14 -14 -14
-22 -22 -24 -26 -26 -26 -25 -26 -26 -26 -25 -22 -20 -19 -17 -17 -16 -16 -16 -16 -16 -16 -15 -14 -15 -15 -16
-23 -24 -24 -25 -25 -26 -26 -27 -27 -26 -24 -22 -21 -19 -18 -17 -16 -16 -16 -16 -16 -16 -16 -15 -16 -16 -16
-23 -23 -24 -25 -25 -26 -25 -25 -24 -23 -23 -24 -23 -21 -20 -19 -19 -19 -19 -19 -18 -17 -17 -17 -16 -16 -16
-22 -23 -24 -24 -24 -24 -24 -23 -23 -24 -24 -24 -23 -22 -22 -22 -21 -21 -20 -19 -18 -18 -17 -17 -17 -16 -16
-21 -23 -24 -25 -24 -24 -23 -24 -23 -24 -24 -24 -23 -23 -22 -20 -16 -14 -15 -15 -14 -13 -14 -14 -15 -15 -15
-19 -21 -22 -23 -21 -20 -22 -23 -20 -23 -23 -22 -22 -22 -21 -17 -12 -10 -9 -10 -10 -11 -12 -13 -15 -16 -17

GFSFLT2_850_dewp_081.txt.gz
Dewpoint
4 3 3 5 4 5 5 5 4 4 4 4 1 1 0 -1 0 2 2 2 3 4 5 6 4 5 6
3 4 4 5 5 5 4 4 4 4 3 3 1 1 0 -1 -0 1 1 2 2 3 4 4 6 7 7
2 2 2 3 3 4 4 3 3 3 3 1 0 0 -0 -1 -1 0 1 1 1 1 2 4 5 5 6
2 2 2 2 2 3 3 3 2 2 1 -0 -1 -1 -1 -1 -1 -1 -1 -0 -0 0 1 2 3 3 4
1 1 1 1 2 2 2 2 1 1 -0 -1 -1 -2 -3 -4 -4 -3 -2 -1 -1 -1 -0 0 0 -0 0
1 0 0 0 1 1 1 0 0 -4 -2 -2 -3 -6 -11 -16 -20 -21 -21 -12 -5 -2 -1 -1 -1 -1 -2
-0 -0 -0 -0 -0 -0 -0 -1 -6 -8 -14 -20 -20 -21 -21 -20 -22 -24 -26 -27 -27 -25 -11 -4 -2 -1 -1
-11 -6 -3 -3 -4 -4 -7 -9 -10 -14 -18 -20 -23 -24 -24 -23 -23 -24 -23 -22 -23 -24 -27 -29 -29 -24 -19
-24 -23 -21 -16 -12 -12 -13 -15 -15 -20 -22 -23 -24 -24 -24 -23 -22 -20 -19 -17 -18 -18 -17 -18 -19 -19 -20
-22 -23 -24 -22 -23 -24 -22 -22 -24 -26 -28 -26 -25 -23 -20 -20 -19 -17 -17 -16 -17 -16 -15 -15 -15 -15 -15
-21 -21 -21 -22 -23 -24 -26 -26 -27 -28 -26 -25 -24 -21 -19 -18 -17 -16 -16 -15 -15 -15 -16 -15 -15 -15 -14
-21 -21 -22 -24 -25 -25 -25 -26 -27 -27 -28 -26 -19 -19 -19 -18 -17 -17 -17 -15 -15 -15 -16 -16 -16 -15 -15
-23 -23 -23 -24 -25 -25 -26 -26 -26 -26 -25 -24 -22 -19 -18 -18 -18 -17 -16 -16 -16 -17 -17 -16 -16 -16 -16
-22 -23 -24 -24 -25 -25 -25 -25 -25 -24 -20 -19 -22 -23 -21 -20 -19 -19 -20 -20 -19 -19 -18 -18 -17 -17 -17
-20 -21 -22 -23 -24 -24 -24 -23 -21 -23 -23 -23 -24 -23 -22 -22 -21 -21 -18 -14 -18 -19 -18 -18 -18 -17 -17
-19 -20 -22 -23 -23 -23 -22 -20 -19 -20 -19 -21 -23 -23 -22 -22 -19 -16 -10 -9 -12 -13 -13 -12 -12 -13 -14
-19 -19 -20 -22 -23 -22 -19 -18 -19 -20 -19 -21 -22 -22 -21 -19 -16 -13 -9 -8 -8 -8 -8 -9 -10 -12 -13

GFSFLT2_850_dewp_084.txt.gz
Dewpoint
4 4 4 3 3 4 5 4 4 4 4 4 4 3 1 0 -0 1 2 1 2 3 4 5 6 4 3
4 3 3 3 4 4 4 4 4 4 3 3 3 2 0 0 -0 -1 1 1 1 2 4 4 5 5 5
3 2 2 2 2 3 3 3 3 3 3 3 2 0 0 0 -0 -0 0 1 1 1 2 4 5 6 7
2 2 2 2 2 2 2 2 3 2 2 2 1 -0 -1 -1 -1 -1 -1 -0 0 0 0 2 4 5 5
2 2 1 1 1 1 2 2 2 2 1 1 -0 -1 -2 -3 -3 -3 -3 -2 -1 -1 -0 0 2 3 3
1 1 1 1 1 1 1 1 1 0 1 -1 -1 -1 -3 -5 -10 -15 -18 -16 -8 -3 -2 -1 -1 0 -0
0 0 0 0 0 0 0 0 -0 -0 -6 -11 -10 -11 -14 -17 -20 -21 -23 -25 -25 -24 -10 -3 -1 -1 -1
-6 -2 -1 -1 -1 -1 -1 -1 -2 -7 -10 -15 -19 -21 -23 -23 -23 -25 -25 -24 -24 -28 -28 -28 -17 -7 -3
-24 -23 -19 -14 -9 -6 -6 -6 -9 -12 -16 -18 -22 -23 -23 -23 -23 -23 -21 -20 -19 -20 -20 -21 -23 -26 -28
-22 -23 -23 -21 -17 -13 -13 -12 -15 -19 -23 -22 -23 -24 -22 -22 -21 -19 -18 -18 -18 -18 -17 -16 -16 -16 -16
-22 -21 -21 -22 -21 -22 -23 -22 -24 -23 -27 -25 -25 -23 -19 -17 -16 -17 -17 -16 -16 -17 -17 -16 -16 -15 -15
-21 -21 -21 -21 -22 -23 -25 -25 -26 -26 -26 -27 -21 -18 -17 -18 -17 -17 -17 -15 -15 -15 -16 -17 -17 -17 -16
-22 -21 -21 -22 -24 -25 -25 -25 -24 -25 -26 -25 -23 -20 -20 -17 -17 -17 -17 -17 -17 -17 -17 -17 -17 -16 -16
-23 -22 -22 -23 -24 -25 -25 -25 -26 -25 -24 -21 -19 -18 -20 -21 -20 -19 -18 -18 -19 -19 -19 -19 -18 -18 -18
-20 -21 -22 -23 -24 -25 -25 -25 -23 -21 -21 -21 -20 -22 -24 -23 -22 -21 -21 -20 -16 -13 -12 -13 -15 -17 -17
-19 -19 -20 -21 -23 -23 -23 -22 -18 -17 -18 -17 -15 -18 -22 -22 -22 -21 -19 -15 -11 -9 -9 -9 -8 -9 -10
-19 -19 -19 -21 -22 -23 -22 -21 -17 -17 -18 -17 -16 -18 -21 -20 -18 -17 -14 -12 -9 -8 -7 -7 -7 -7 -8

GFSFLT2_850_dewp_087.txt.gz
Dewpoint
4 4 4 2 3 3 3 3 4 4 4 4 4 4 3 2 1 0 0 2 2 0 2 3 4 5 5
4 4 4 3 3 3 4 4 4 4 4 3 3 3 2 1 0 0 -1 -2 0 1 2 3 4 6 5
3 3 3 2 2 2 2 2 3 3 3 3 3 2 2 0 0 -0 -1 -0 1 1 1 3 5 6 6
2 2 2 2 2 2 2 1 2 2 2 2 2 1 1 -1 -1 -1 -1 -1 -0 0 0 2 3 4 5
2 2 1 1 1 1 1 1 2 2 1 1 1 1 0 -1 -2 -3 -3 -3 -2 -2 -1 -0 1 3 4
1 1 1 1 1 1 1 1 1 1 1 0 0 -0 -1 -2 -4 -6 -12 -16 -13 -6 -2 -1 0 0 1
0 0 1 1 0 0 0 0 0 0 0 -1 -6 -5 -4 -7 -12 -18 -22 -23 -24 -24 -18 -6 -3 -1 -0
-1 -1 -0 -0 -1 -1 -1 -1 -1 -1 -1 -3 -10 -16 -19 -22 -22 -21 -25 -26 -25 -27 -28 -28 -17 -5 -2
-14 -18 -16 -11 -9 -4 -4 -3 -3 -6 -9 -11 -16 -20 -22 -23 -22 -23 -25 -23 -21 -21 -22 -24 -26 -29 -28
-19 -23 -23 -22 -20 -12 -9 -8 -7 -9 -17 -18 -21 -23 -22 -23 -22 -22 -20 -19 -18 -18 -18 -17 -17 -17 -18
-21 -22 -21 -21 -19 -18 -17 -16 -17 -17 -23 -26 -24 -23 -22 -16 -17 -19 -18 -17 -17 -17 -17 -16 -16 -16 -16
-21 -21 -21 -21 -22 -22 -23 -25 -26 -25 -25 -28 -24 -22 -20 -18 -18 -18 -17 -17 -16 -16 -15 -16 -16 -17 -17
-22 -21 -21 -21 -21 -22 -24 -25 -26 -26 -27 -27 -26 -20 -19 -19 -18 -16 -16 -17 -17 -17 -17 -17 -17 -17 -17
-22 -21 -21 -20 -22 -24 -25 -25 -25 -26 -26 -25 -24 -21 -18 -17 -18 -18 -19 -18 -19 -18 -18 -19 -18 -18 -18
-21 -22 -21 -21 -22 -24 -25 -25 -25 -25 -22 -19 -18 -18 -18 -19 -23 -22 -21 -21 -21 -20 -14 -10 -10 -10 -10
-20 -20 -20 -21 -23 -23 -24 -25 -24 -22 -17 -14 -14 -13 -13 -15 -18 -22 -22 -21 -18 -14 -10 -7 -7 -7 -7
-18 -19 -18 -18 -20 -22 -23 -23 -22 -18 -14 -13 -15 -14 -13 -15 -15 -19 -19 -16 -14 -12 -9 -7 -7 -7 -8

GFSFLT2_850_dewp_090.txt.gz
Dewpoint
4 4 4 4 3 3 3 3 3 3 4 4 3 3 4 4 2 2 0 0 1 1 0 1 2 2 3
4 5 4 3 3 3 2 2 3 3 4 3 4 4 3 2 2 1 0 -0 -2 -1 1 2 4 5 4
4 3 3 2 3 2 2 2 1 1 2 2 3 3 3 1 1 -0 0 -1 -1 0 1 1 4 5 5
4 3 2 3 2 2 1 1 1 1 1 1 2 2 2 1 1 -1 -1 -1 -1 -1 0 1 2 4 5
3 3 1 2 1 1 1 1 1 1 1 1 1 0 0 0 -0 -2 -3 -3 -3 -2 -2 -1 1 2 4
1 1 1 1 1 1 1 1 0 1 1 1 0 -0 -0 -0 -2 -2 -5 -9 -13 -10 -5 -3 -2 1 1
-0 0 0 1 1 1 1 0 -0 0 0 -0 -1 -1 -8 -5 -4 -7 -16 -22 -23 -23 -23 -11 -5 -3 0
-0 0 0 0 0 0 -0 -1 -1 -0 -1 -1 -1 -5 -13 -18 -20 -21 -23 -24 -25 -25 -28 -26 -19 -7 -3
0 -1 -6 -5 -4 -3 -2 -2 -2 -2 -2 -2 -7 -13 -19 -22 -23 -24 -24 -25 -21 -20 -23 -25 -28 -29 -22
-3 -10 -19 -20 -15 -16 -11 -9 -5 -5 -9 -11 -13 -18 -24 -24 -23 -23 -23 -21 -19 -18 -19 -18 -19 -19 -21
-6 -13 -20 -21 -20 -18 -15 -13 -10 -10 -18 -24 -23 -24 -25 -19 -20 -22 -20 -18 -17 -17 -18 -17 -17 -16 -16
-11 -19 -21 -22 -21 -19 -16 -15 -19 -14 -19 -24 -28 -26 -27 -24 -19 -18 -18 -17 -17 -16 -16 -16 -17 -16 -17
-16 -20 -21 -21 -21 -21 -22 -23 -24 -25 -25 -27 -28 -24 -23 -21 -19 -19 -17 -14 -16 -18 -17 -16 -16 -17 -17
-18 -19 -19 -21 -21 -20 -22 -24 -25 -25 -26 -27 -28 -25 -22 -21 -17 -16 -15 -18 -19 -19 -18 -18 -18 -18 -18
-18 -19 -20 -20 -20 -21 -22 -24 -24 -25 -26 -26 -25 -19 -16 -17 -16 -20 -23 -22 -21 -20 -20 -19 -12 -9 -9
-19 -20 -20 -21 -20 -21 -22 -24 -24 -25 -25 -21 -18 -17 -14 -12 -12 -13 -19 -22 -22 -21 -17 -11 -8 -7 -7
-17 -19 -21 -21 -20 -21 -22 -24 -24 -24 -23 -16 -14 -14 -13 -12 -11 -12 -18 -20 -19 -15 -13 -11 -10 -8 -8

GFSFLT2_850_dewp_093.txt.gz
Dewpoint
2 3 4 4 4 4 2 2 2 3 3 3 3 3 2 2 3 3 2 1 0 -0 -0 -1 -0 4 4
2 3 4 5 5 4 2 2 2 3 3 2 3 3 3 3 3 2 1 0 -0 -1 -1 0 2 4 5
2 3 3 4 3 3 2 2 1 1 1 1 2 2 2 3 2 1 0 -0 -0 -1 -2 0 1 3 5
1 2 4 4 3 2 2 2 1 1 1 1 1 1 1 2 1 0 0 -1 -1 -2 -2 -1 1 2 4
1 2 3 3 3 2 2 1 1 1 1 1 1 0 0 0 -0 0 -1 -2 -3 -3 -3 -3 -1 1 2
1 1 2 2 2 1 1 1 1 1 1 0 0 0 -0 -1 -0 -1 -2 -3 -6 -10 -9 -5 -4 -1 1
-1 -1 0 0 0 1 1 1 0 0 0 -0 0 -0 -1 -1 -7 -3 -4 -11 -20 -22 -23 -22 -10 -4 -2
-3 -3 -2 -1 0 0 1 0 -0 -0 -0 -0 -1 -1 -1 -5 -15 -19 -22 -23 -25 -26 -26 -26 -25 -12 -5
-3 -2 -1 -0 -0 -0 -0 -0 -1 -1 -1 -2 -3 -4 -6 -14 -19 -21 -23 -24 -25 -23 -26 -28 -29 -28 -19
-1 -0 -0 -3 -9 -11 -5 -6 -2 -4 -6 -4 -6 -10 -17 -21 -22 -23 -23 -25 -22 -20 -20 -20 -21 -23 -27
-1 -1 -5 -12 -16 -16 -15 -14 -13 -11 -11 -12 -13 -15 -18 -21 -23 -23 -23 -21 -19 -19 -18 -18 -18 -17 -17
-1 -2 -8 -14 -20 -20 -17 -15 -13 -11 -9 -14 -25 -27 -24 -25 -19 -19 -20 -19 -18 -17 -17 -17 -18 -17 -17
-1 -2 -10 -18 -21 -20 -19 -17 -17 -19 -17 -18 -20 -27 -25 -24 -22 -19 -19 -17 -17 -17 -16 -16 -16 -17 -17
-1 -4 -16 -20 -21 -20 -21 -22 -22 -24 -25 -23 -26 -27 -21 -21 -19 -19 -15 -12 -14 -16 -18 -17 -17 -17 -18
-2 -6 -16 -19 -20 -20 -21 -21 -23 -25 -26 -26 -27 -27 -23 -21 -17 -16 -17 -20 -21 -20 -19 -19 -19 -18 -12
-2 -6 -16 -19 -19 -19 -20 -22 -24 -25 -24 -24 -26 -25 -20 -16 -13 -11 -11 -15 -22 -22 -21 -21 -16 -9 -7
-2 -5 -15 -18 -17 -19 -20 -22 -24 -24 -24 -25 -24 -19 -18 -13 -11 -11 -11 -16 -20 -21 -21 -19 -13 -10 -9

GFSFLT2_850_dewp_096.txt.gz
Dewpoint
4 3 3 3 3 4 4 4 3 1 2 2 3 2 3 3 2 2 3 3 2 1 0 -1 -1 -0 2
6 3 2 3 4 4 4 4 2 2 2 3 3 2 2 2 3 3 3 2 1 0 -1 -1 -2 1 3
3 2 2 3 4 4 3 2 1 2 1 1 1 1 1 2 2 2 2 1 0 -0 -1 -3 -1 1 3
2 2 2 3 4 2 3 3 1 1 1 1 1 1 1 1 1 1 1 0 0 -1 -2 -2 -3 0 1
2 2 2 2 1 2 2 2 0 1 1 1 1 1 1 0 0 -0 -0 -0 -1 -2 -4 -4 -4 -2 1
2 2 1 1 1 1 2 1 1 0 1 1 1 1 0 0 -0 -1 -1 -1 -2 -4 -8 -12 -8 -5 -0
3 3 1 1 1 1 1 0 1 1 1 0 0 0 -0 -0 -1 -1 -6 -3 -5 -14 -21 -23 -23 -11 -4
2 2 2 1 -0 0 0 0 1 1 0 -0 -0 -1 -1 -1 -1 -3 -16 -20 -23 -25 -26 -26 -25 -23 -10
1 1 -1 -1 -1 -0 0 0 0 0 -0 -1 -1 -1 -1 -2 -3 -12 -19 -23 -25 -25 -24 -27 -28 -27 -24
0 -1 -2 -1 -1 -0 -0 0 -0 -1 -2 -3 -3 -4 -4 -7 -12 -19 -23 -25 -26 -22 -21 -22 -23 -25 -27
-1 -1 -1 -1 -0 -1 -5 -6 -6 -9 -10 -7 -7 -5 -8 -23 -23 -22 -22 -24 -23 -20 -20 -19 -18 -18 -17
-1 -1 -1 -1 -2 -8 -12 -14 -16 -14 -10 -11 -13 -14 -14 -16 -22 -22 -24 -22 -20 -19 -18 -18 -17 -17 -16
-1 -1 -1 -2 -8 -14 -17 -17 -16 -15 -12 -9 -12 -22 -26 -21 -25 -20 -20 -19 -19 -18 -17 -17 -17 -17 -17
-1 -1 -1 -4 -11 -17 -20 -19 -16 -14 -14 -13 -12 -18 -26 -24 -24 -21 -19 -14 -11 -11 -16 -17 -16 -16 -16
-1 -1 -1 -4 -13 -18 -20 -19 -18 -18 -19 -18 -19 -22 -25 -22 -22 -19 -18 -13 -14 -17 -18 -18 -18 -18 -18
-1 -1 -2 -3 -12 -18 -19 -20 -20 -20 -22 -23 -25 -25 -25 -22 -19 -18 -14 -12 -15 -19 -22 -20 -20 -19 -16
-1 -1 -2 -2 -11 -17 -18 -18 -19 -19 -22 -23 -24 -25 -26 -22 -17 -12 -10 -11 -13 -17 -22 -21 -20 -18 -11

GFSFLT2_850_dewp_099.txt.gz
Dewpoint
8 8 7 6 3 3 3 3 3 3 2 1 1 3 4 2 2 2 2 2 3 2 1 0 -0 -2 -2
8 7 6 5 3 3 4 4 4 3 2 1 0 2 3 2 2 2 2 2 2 1 0 0 -1 -4 0
7 8 7 4 3 4 3 4 4 3 1 1 0 1 1 1 1 1 2 2 1 1 0 -1 -2 -6 1
9 9 8 4 3 3 3 4 3 2 1 0 1 1 1 1 1 1 1 1 0 -0 -0 -2 -3 -5 -0
8 8 6 3 3 3 3 4 2 2 0 0 -0 0 1 1 0 0 -0 -0 -1 -0 -1 -3 -5 -6 -3
8 8 5 3 3 3 3 2 2 1 -0 0 0 1 1 0 0 -0 -1 -1 -1 -2 -2 -7 -12 -11 -7
8 8 5 3 3 2 2 1 0 1 -1 -0 0 1 0 0 -0 -1 -1 -1 -6 -4 -8 -18 -22 -22 -12
6 5 4 3 4 4 3 1 1 1 0 1 0 0 -0 -0 -1 -1 -1 -2 -17 -21 -24 -26 -26 -25 -22
5 5 5 5 4 2 1 1 1 0 0 1 0 -0 -1 -1 -1 -1 -2 -10 -20 -25 -25 -25 -27 -27 -26
4 4 3 2 2 -0 -1 -1 0 0 0 0 -0 -1 -2 -3 -2 -4 -8 -18 -24 -25 -23 -23 -25 -26 -28
3 3 3 2 0 -1 -1 -1 0 0 -1 -1 -3 -3 -4 -20 -11 -9 -15 -22 -25 -24 -20 -20 -19 -19 -20
2 2 1 0 -1 -1 -1 -0 -0 -0 -1 -5 -8 -7 -6 -6 -17 -22 -21 -23 -24 -21 -18 -19 -18 -17 -17
1 -0 -0 -1 -1 -1 -0 -2 -4 -4 -3 -6 -10 -9 -13 -11 -14 -23 -22 -23 -22 -19 -18 -18 -18 -17 -17
0 -1 -1 -1 -1 -1 -2 -8 -9 -8 -10 -10 -8 -10 -22 -26 -21 -25 -19 -19 -19 -18 -17 -17 -16 -15 -17
0 -0 -1 -1 -1 -2 -7 -11 -12 -11 -12 -12 -10 -10 -12 -20 -25 -25 -20 -17 -13 -14 -12 -14 -16 -17 -16
-1 -1 -1 -1 -1 -5 -11 -14 -15 -15 -14 -13 -14 -13 -14 -21 -24 -23 -19 -19 -15 -16 -18 -19 -19 -18 -18
-1 -1 -1 -2 -2 -4 -10 -14 -14 -14 -15 -17 -19 -20 -21 -23 -25 -20 -19 -16 -14 -15 -17 -20 -21 -20 -20

GFSFLT2_850_dewp_102.txt.gz
Dewpoint
9 9 9 8 8 8 6 5 5 3 2 2 1 1 1 1 3 2 2 2 2 2 2 2 0 0 -2
8 8 8 7 7 7 5 5 5 4 3 3 2 1 -0 1 2 2 2 2 1 2 2 1 0 -1 -4
8 8 8 7 7 6 6 5 5 4 4 4 2 1 -1 1 2 2 1 1 1 1 1 0 -0 -2 -5
8 8 8 8 7 7 6 5 5 5 4 3 2 0 0 1 1 0 0 0 0 0 -0 -0 -1 -3 -6
9 9 8 8 7 6 6 5 5 5 4 2 1 0 0 1 1 1 0 0 -0 -0 -1 -1 -2 -6 -7
8 8 8 8 7 7 5 5 4 4 3 1 1 -1 -0 1 1 1 0 0 -0 -1 -3 -2 -5 -10 -12
8 8 8 7 8 8 6 4 3 3 1 -0 0 0 -0 1 1 0 0 -0 -1 -2 -8 -5 -12 -20 -22
6 7 7 8 8 8 6 4 4 3 2 1 -0 0 1 1 0 0 -0 -1 -1 -6 -17 -22 -26 -26 -25
7 6 6 6 6 5 4 4 4 4 3 -0 -0 0 0 0 -0 -0 -1 -1 -1 -14 -23 -26 -28 -28 -27
5 5 5 5 5 4 4 4 5 3 2 -1 -0 0 0 -0 -1 -1 -1 -2 -5 -19 -25 -25 -28 -29 -29
4 5 4 5 4 4 5 4 3 2 -0 -1 -0 0 -0 -7 -2 -2 -2 -4 -13 -23 -24 -22 -23 -25 -27
3 3 4 4 4 3 3 2 1 0 -0 -0 -2 -1 -0 -4 -18 -5 -5 -10 -19 -23 -23 -20 -20 -20 -19
2 2 3 3 3 2 2 1 -0 0 0 -0 -0 -7 -4 -3 -7 -18 -20 -16 -21 -23 -21 -19 -19 -19 -18
1 1 2 1 1 1 1 -0 -0 -1 -1 -1 -1 -6 -8 -6 -5 -10 -21 -22 -23 -23 -19 -18 -18 -17 -17
-0 0 0 0 -0 0 -0 -0 -1 -1 -2 -2 -2 -5 -9 -18 -20 -16 -23 -21 -21 -21 -19 -18 -17 -15 -14
-1 -0 -0 -0 -1 -1 -0 -1 -1 -2 -3 -4 -5 -7 -6 -11 -21 -23 -24 -18 -16 -18 -15 -13 -13 -13 -15
-1 -2 -1 -1 -1 -2 -2 -2 -2 -6 -6 -6 -8 -9 -7 -7 -15 -24 -22 -19 -16 -13 -14 -16 -17 -18 -18

GFSFLT2_850_dewp_105.txt.gz
Dewpoint
8 8 9 9 9 9 9 8 8 8 5 3 2 2 2 1 1 2 2 2 1 3 2 1 1 1 0
9 9 8 9 9 9 8 7 7 5 4 4 3 2 2 2 2 2 3 2 2 1 1 1 1 1 -0
9 9 8 8 8 7 7 7 6 5 5 4 4 3 3 2 1 0 3 2 1 1 1 1 1 0 -0
9 8 8 8 7 6 7 7 6 6 5 5 4 4 4 2 1 1 3 1 -0 0 0 0 -0 -1 -1
8 8 8 8 7 7 7 7 6 6 5 5 5 4 3 2 0 1 1 0 0 0 -0 -0 -1 -1 -4
8 8 8 8 8 7 7 6 5 6 5 5 5 4 3 2 1 1 1 1 0 0 -0 -1 -2 -3 -7
7 7 8 8 8 8 7 7 7 6 5 5 4 4 3 2 1 1 1 1 0 -0 -1 -3 -4 -6 -14
6 6 7 7 7 8 8 7 6 5 5 5 4 3 2 1 1 0 1 1 0 -1 -1 -10 -10 -18 -22
3 6 6 7 7 7 6 5 4 4 4 4 3 2 0 1 1 1 1 0 -0 -1 -2 -20 -24 -25 -26
3 4 5 6 5 6 6 5 3 4 4 3 3 3 1 0 1 1 0 -0 -1 -1 -7 -23 -25 -26 -28
3 3 4 5 5 5 5 5 5 4 4 4 4 2 0 -0 0 0 -0 -1 -1 -2 -14 -24 -24 -27 -28
1 2 3 3 4 5 5 5 5 4 4 4 4 3 0 -1 -3 -0 -1 -1 -3 -6 -21 -23 -22 -24 -24
-0 1 2 3 3 4 4 4 4 4 4 3 2 -0 -0 -0 -2 -10 -2 -3 -4 -12 -22 -22 -20 -20 -18
-1 -0 1 2 2 2 2 3 2 2 1 1 0 -0 -1 -0 -1 -12 -12 -6 -7 -15 -20 -20 -19 -18 -17
-2 -1 -1 0 0 0 1 1 1 1 0 -0 -0 -1 -2 -6 -4 -4 -11 -18 -20 -18 -22 -19 -18 -18 -16
-3 -2 -1 -1 -0 -0 -0 -0 0 -0 -0 -1 -1 -2 -3 -6 -6 -6 -10 -15 -21 -20 -21 -18 -18 -17 -15
-3 -3 -2 -2 -1 -1 -1 -0 -1 -1 -1 -1 -2 -2 -4 -8 -14 -18 -15 -21 -20 -20 -19 -17 -17 -15 -13

GFSFLT2_850_dewp_108.txt.gz
Dewpoint
8 8 9 8 8 7 8 8 8 8 9 9 7 5 5 6 7 7 3 3 4 2 2 2 2 1 1
9 9 8 8 7 8 8 9 9 9 9 8 7 6 6 6 5 3 2 1 3 2 1 2 1 1 1
8 9 8 8 7 8 8 8 8 8 8 7 7 6 6 5 4 3 2 2 3 3 2 1 1 1 1
7 8 8 8 8 8 8 7 6 7 6 6 6 5 4 5 4 3 2 1 2 3 2 0 1 0 0
8 8 8 8 8 8 8 7 6 6 6 6 6 5 5 5 4 3 2 1 2 2 -0 0 0 -0 -1
6 7 7 7 7 8 7 6 5 6 6 6 6 6 5 4 4 3 2 0 2 1 0 0 -0 -1 -1
4 5 5 7 6 8 8 7 6 6 6 6 6 6 5 5 4 3 2 0 1 1 1 0 -0 -1 -3
2 3 4 5 5 6 6 7 7 7 6 6 6 6 6 5 4 4 2 0 -0 0 0 -0 -1 -4 -5
-5 0 3 4 5 5 6 5 4 5 6 6 6 5 5 4 5 4 2 -0 -0 1 0 -0 -1 -10 -13
-2 -4 -1 3 4 4 5 5 5 4 5 5 5 5 3 3 4 2 1 1 0 1 0 -1 -2 -20 -23
-5 -4 -2 -1 2 4 4 4 5 5 6 5 5 4 4 3 3 2 1 1 0 0 -0 -1 -5 -23 -25
-7 -4 -3 -3 0 2 4 4 4 5 5 5 5 4 4 3 2 2 1 0 -0 -0 -0 -2 -10 -23 -26
-6 -3 -2 -3 -3 1 1 2 3 3 4 4 4 4 4 4 3 2 1 -0 -0 -0 -1 -3 -17 -24 -25
-5 -4 -2 -2 -1 -0 -0 1 2 2 2 2 3 3 4 4 3 1 -1 -0 -1 -1 -2 -7 -21 -20 -21
-5 -5 -4 -3 -2 -1 -1 -1 0 1 1 1 0 1 3 4 1 -1 -2 -2 -2 -1 -3 -13 -20 -19 -18
-7 -5 -4 -4 -2 -2 -2 -2 -1 -0 -0 0 0 -0 -0 -1 -0 -1 -3 -7 -4 -4 -4 -17 -19 -18 -17
-7 -6 -5 -4 -4 -3 -3 -2 -2 -1 -0 -0 -0 -1 -2 -3 -3 -2 -3 -10 -6 -12 -7 -17 -19 -17 -17

GFSFLT2_850_dewp_111.txt.gz
Dewpoint
9 8 9 9 9 8 8 8 8 7 7 7 6 7 8 9 9 8 8 8 7 8 7 4 3 1 2
8 9 9 9 9 8 8 8 7 7 6 6 6 8 9 9 8 8 7 6 8 7 5 3 1 1 1
8 9 8 9 9 8 8 7 7 7 7 7 7 8 9 9 8 8 6 8 7 5 2 2 1 1 1
6 7 8 8 8 7 8 8 8 8 8 8 8 8 8 8 7 7 8 6 4 2 2 2 2 2 0
-0 4 6 6 7 8 7 8 8 8 8 7 7 7 8 7 6 7 5 4 4 3 2 1 2 1 -1
1 3 3 5 5 6 7 7 7 7 7 7 6 7 7 6 7 5 4 5 3 3 1 2 2 -0 -0
-1 0 1 2 3 5 5 6 6 7 7 6 6 6 6 6 5 5 5 4 4 3 1 1 1 0 -0
-6 -3 -1 0 2 3 4 4 5 6 6 5 6 6 6 6 6 6 5 5 4 3 0 0 0 0 -0
-13 -7 -3 -3 -2 1 3 3 4 5 5 5 5 6 6 6 6 6 5 5 4 3 1 -0 0 0 -0
-16 -21 -20 -19 -16 -7 0 1 3 4 4 4 5 5 4 5 5 5 4 4 4 4 1 -0 -0 0 -1
-9 -18 -17 -10 -15 -8 -8 -0 1 3 4 4 5 4 4 4 4 3 3 3 2 3 1 -0 0 0 -1
-7 -6 -5 -6 -6 -3 -5 -6 -2 1 3 4 4 4 4 3 4 4 2 3 3 3 0 -0 0 -0 -1
-9 -9 -7 -6 -5 -6 -4 -2 -1 -1 1 2 3 4 4 3 4 4 3 2 2 2 0 -0 -0 -1 -2
-9 -8 -9 -7 -7 -6 -5 -3 -2 -1 0 0 2 3 3 3 4 3 3 2 1 1 1 0 -0 -1 -4
-10 -10 -9 -9 -6 -5 -5 -4 -3 -2 -1 -0 1 1 2 2 2 2 2 1 2 2 1 0 -0 -2 -10
-10 -9 -8 -6 -6 -5 -5 -4 -4 -3 -2 -1 -1 -0 -1 -1 -0 1 1 2 1 1 0 0 -1 -3 -17
-10 -9 -8 -7 -6 -6 -5 -5 -4 -4 -4 -3 -2 -1 -2 -3 -2 -1 0 1 0 0 -1 -1 -1 -4 -18

GFSFLT2_850_dewp_114.txt.gz
Dewpoint
8 9 10 10 10 10 9 9 8 8 8 7 8 8 7 7 6 6 7 8 8 9 10 9 7 7 6
7 7 7 9 9 9 9 9 9 8 8 9 8 7 7 7 6 6 7 8 8 9 9 8 6 7 4
2 5 5 7 8 9 9 9 9 9 9 9 9 8 8 8 7 8 8 9 9 9 9 7 7 7 2
-11 -7 -1 3 6 6 7 8 7 8 8 8 8 8 8 8 8 8 8 8 9 9 7 7 7 3 1
-13 -9 -4 1 3 4 5 6 7 7 7 7 7 8 8 8 8 8 8 8 8 8 7 7 4 2 1
-6 -3 -3 -1 1 2 3 4 5 6 6 7 6 7 7 7 7 7 8 8 7 7 6 4 3 2 0
-5 -5 -5 -5 -2 -1 1 2 2 3 4 5 5 6 7 7 7 7 7 7 7 7 5 4 3 2 0
-12 -12 -12 -13 -12 -5 -2 -0 1 2 3 4 5 5 6 6 6 7 7 7 6 6 5 5 3 1 1
-12 -12 -15 -18 -17 -15 -16 -8 -3 -0 2 3 3 4 5 5 6 6 6 6 6 5 5 5 3 1 1
-14 -17 -16 -15 -13 -14 -9 -5 -4 -3 -0 2 3 4 4 5 5 6 6 6 5 5 5 5 4 1 0
-10 -10 -13 -11 -10 -5 -4 -6 -4 -3 -2 0 1 2 4 4 4 5 5 5 5 5 4 5 4 2 -0
-9 -9 -9 -9 -8 -10 -8 -5 -6 -6 -4 -2 -1 1 2 3 4 4 4 4 4 4 4 4 3 2 -0
-9 -10 -10 -10 -10 -10 -12 -12 -9 -8 -8 -4 -2 -1 0 2 3 3 3 2 2 3 3 3 3 3 1
-10 -10 -10 -10 -10 -9 -7 -6 -6 -7 -6 -6 -4 -1 -0 -0 2 3 3 2 2 2 2 2 2 2 1
-10 -10 -10 -10 -11 -10 -8 -7 -6 -5 -6 -5 -4 -2 -1 -1 0 1 2 3 2 3 1 1 1 2 1
-10 -10 -10 -10 -11 -10 -8 -7 -7 -6 -5 -5 -4 -3 -2 -1 -1 -0 1 2 2 1 1 -0 0 0 0
-11 -10 -10 -11 -10 -10 -9 -8 -7 -6 -5 -5 -5 -4 -3 -3 -2 -1 -0 0 0 -0 0 -0 0 0 -0

GFSFLT2_850_dewp_117.txt.gz
Dewpoint
4 4 6 7 8 9 9 9 9 9 9 8 8 7 7 8 8 9 8 7 8 8 7 9 8 10 9
-1 -4 -3 2 6 7 8 9 9 10 10 9 9 8 7 8 8 8 8 8 7 8 8 8 9 9 9
-11 -12 -11 -8 -0 5 6 7 8 8 9 9 9 8 8 8 9 8 8 8 8 7 8 9 9 9 9
-14 -15 -15 -12 -6 -2 4 6 6 7 7 8 8 8 9 9 9 8 9 8 8 8 9 8 9 9 8
-9 -11 -12 -11 -6 -2 0 1 3 5 6 7 7 7 8 8 7 7 7 8 8 8 8 8 9 9 8
-8 -9 -10 -11 -12 -10 -8 -3 -1 -0 4 5 5 6 7 6 7 7 7 8 8 8 8 8 9 8 7
-11 -13 -13 -15 -12 -13 -14 -12 -10 -6 0 2 3 4 5 5 5 6 6 7 7 8 8 8 7 7 7
-10 -11 -11 -14 -14 -12 -12 -14 -14 -18 -18 -3 -1 2 3 4 5 6 6 7 7 7 7 7 7 6 6
-8 -10 -11 -12 -13 -9 -12 -8 -6 -7 -12 -5 -6 0 1 2 4 5 6 6 6 6 6 7 6 6 5
-8 -12 -14 -14 -13 -10 -8 -6 -5 -5 -5 -2 -2 -0 1 -1 1 4 5 5 5 6 6 6 6 5 5
-7 -11 -14 -14 -14 -12 -10 -9 -8 -7 -6 -6 -5 -3 -2 -1 1 3 4 5 5 5 5 6 6 5 5
-8 -12 -12 -12 -12 -12 -12 -12 -12 -11 -13 -9 -7 -7 -4 -2 -1 1 2 3 4 4 4 5 5 5 5
-10 -10 -11 -11 -11 -11 -11 -13 -12 -9 -7 -7 -6 -7 -7 -6 -3 -2 0 2 3 3 3 4 4 4 4
-9 -11 -11 -11 -11 -10 -10 -12 -11 -10 -9 -8 -6 -5 -5 -7 -6 -3 -1 0 1 3 3 3 3 3 4
-10 -11 -11 -11 -11 -10 -11 -11 -9 -8 -9 -8 -7 -6 -5 -5 -5 -4 -2 -1 0 2 2 2 2 2 3
-11 -10 -11 -11 -10 -11 -11 -11 -11 -10 -9 -8 -7 -6 -5 -6 -5 -4 -3 -2 -0 0 1 2 1 1 2
-12 -12 -12 -11 -11 -12 -11 -11 -10 -9 -8 -8 -7 -6 -6 -5 -6 -6 -3 -2 -1 -0 0 1 1 1 1